| time (UTC) | temp F | wind direction | speed MPH | gust MPH | rain 1hr in | rain 24hr in | rain mn in | humidity % | barometer mb |
| 20260504031809 | 55 | 174 | 2.0 | 4.0 | 0.00 | 0.00 | 0.00 | 71 | 1017.0 |
| 20260504031736 | 55 | 173 | 2.0 | 5.0 | 0.00 | 0.00 | 0.00 | 72 | 1017.0 |
| 20260504031622 | 55 | 159 | 2.0 | 5.0 | 0.00 | 0.00 | 0.00 | 72 | 1017.0 |
| 20260504031514 | 55 | 159 | 2.0 | 5.0 | 0.00 | 0.00 | 0.00 | 73 | 1017.0 |
| 20260504031421 | 55 | 150 | 2.0 | 3.0 | 0.00 | 0.00 | 0.00 | 72 | 1017.0 |
| 20260504031329 | 55 | 146 | 2.0 | 3.0 | 0.00 | 0.00 | 0.00 | 73 | 1017.0 |
| 20260504031237 | 55 | 143 | 2.0 | 3.0 | 0.00 | 0.00 | 0.00 | 73 | 1017.0 |
| 20260504031122 | 55 | 148 | 2.0 | 3.0 | 0.00 | 0.00 | 0.00 | 73 | 1017.0 |
| 20260504031015 | 55 | 126 | 2.0 | 3.0 | 0.00 | 0.00 | 0.00 | 74 | 1017.1 |
| 20260504030923 | 55 | 126 | 1.0 | 2.0 | 0.00 | 0.00 | 0.00 | 73 | 1017.1 |
| 20260504030810 | 55 | 126 | 1.0 | 2.0 | 0.00 | 0.00 | 0.00 | 72 | 1017.1 |
| 20260504030719 | 55 | 126 | 1.0 | 2.0 | 0.00 | 0.00 | 0.00 | 72 | 1017.1 |
| 20260504030626 | 55 | 126 | 0.0 | 2.0 | 0.00 | 0.00 | 0.00 | 72 | 1017.1 |
| 20260504030601 | 56 | 126 | 0.0 | 1.0 | 0.00 | 0.00 | 0.00 | 72 | 1017.0 |
| 20260504030314 | 56 | 126 | 0.0 | 0.0 | 0.00 | 0.00 | 0.00 | 74 | 1017.2 |
| 20260504030222 | 56 | 126 | 0.0 | 0.0 | 0.00 | 0.00 | 0.00 | 75 | 1017.2 |
| 20260504030110 | 56 | 126 | 0.0 | 0.0 | 0.00 | 0.00 | 0.00 | 75 | 1017.1 |
| 20260504030017 | 56 | 126 | 0.0 | 0.0 | 0.00 | 0.00 | 0.00 | 75 | 1017.2 |
| 20260504025910 | 56 | 126 | 0.0 | 0.0 | 0.00 | 0.00 | 0.00 | 75 | 1017.1 |
| 20260504025816 | 56 | 126 | 0.0 | 0.0 | 0.00 | 0.00 | 0.00 | 76 | 1017.2 |
| 20260504025725 | 56 | 126 | 0.0 | 0.0 | 0.00 | 0.00 | 0.00 | 77 | 1017.2 |
| 20260504025613 | 56 | 126 | 0.0 | 0.0 | 0.00 | 0.00 | 0.00 | 75 | 1017.1 |
| 20260504025520 | 56 | 126 | 0.0 | 0.0 | 0.00 | 0.00 | 0.00 | 76 | 1017.2 |
| 20260504025447 | 56 | 126 | 0.0 | 0.0 | 0.00 | 0.00 | 0.00 | 77 | 1017.2 |
| 20260504025317 | 56 | 126 | 0.0 | 0.0 | 0.00 | 0.00 | 0.00 | 77 | 1017.1 |
| 20260504025225 | 56 | 126 | 0.0 | 0.0 | 0.00 | 0.00 | 0.00 | 77 | 1017.1 |
| 20260504025132 | 56 | 126 | 0.0 | 0.0 | 0.00 | 0.00 | 0.00 | 76 | 1017.2 |
| 20260504025102 | 56 | 126 | 0.0 | 0.0 | 0.00 | 0.00 | 0.00 | 72 | 1017.2 |
| 20260504024820 | 56 | 126 | 0.0 | 0.0 | 0.00 | 0.00 | 0.00 | 68 | 1017.1 |
| 20260504024726 | 56 | 126 | 0.0 | 0.0 | 0.00 | 0.00 | 0.00 | 68 | 1017.1 |
| 20260504024615 | 56 | 126 | 0.0 | 0.0 | 0.00 | 0.00 | 0.00 | 68 | 1017.1 |
| 20260504024522 | 56 | 126 | 0.0 | 0.0 | 0.00 | 0.00 | 0.00 | 69 | 1017.1 |
| 20260504024429 | 56 | 126 | 0.0 | 0.0 | 0.00 | 0.00 | 0.00 | 69 | 1017.1 |
| 20260504024316 | 56 | 126 | 0.0 | 0.0 | 0.00 | 0.00 | 0.00 | 69 | 1017.1 |
| 20260504024227 | 56 | 126 | 0.0 | 0.0 | 0.00 | 0.00 | 0.00 | 69 | 1017.1 |
| 20260504024115 | 56 | 126 | 0.0 | 0.0 | 0.00 | 0.00 | 0.00 | 68 | 1017.0 |
| 20260504024022 | 56 | 126 | 0.0 | 0.0 | 0.00 | 0.00 | 0.00 | 68 | 1017.0 |
| 20260504023909 | 56 | 126 | 0.0 | 0.0 | 0.00 | 0.00 | 0.00 | 68 | 1017.0 |
| 20260504023817 | 56 | 126 | 0.0 | 0.0 | 0.00 | 0.00 | 0.00 | 68 | 1016.9 |
| 20260504023709 | 56 | 126 | 0.0 | 0.0 | 0.00 | 0.00 | 0.00 | 68 | 1017.0 |
| 20260504023637 | 56 | 126 | 0.0 | 0.0 | 0.00 | 0.00 | 0.00 | 68 | 1017.0 |
| 20260504023546 | 56 | 126 | 0.0 | 0.0 | 0.00 | 0.00 | 0.00 | 68 | 1017.0 |
| 20260504023319 | 56 | 126 | 0.0 | 0.0 | 0.00 | 0.00 | 0.00 | 69 | 1017.0 |
| 20260504023227 | 56 | 126 | 0.0 | 0.0 | 0.00 | 0.00 | 0.00 | 69 | 1017.0 |
| 20260504023118 | 57 | 126 | 0.0 | 0.0 | 0.00 | 0.00 | 0.00 | 68 | 1016.9 |
| 20260504023026 | 57 | 126 | 0.0 | 0.0 | 0.00 | 0.00 | 0.00 | 68 | 1016.9 |
| 20260504022914 | 57 | 126 | 0.0 | 0.0 | 0.00 | 0.00 | 0.00 | 68 | 1017.0 |
| 20260504022821 | 57 | 126 | 0.0 | 0.0 | 0.00 | 0.00 | 0.00 | 67 | 1017.0 |
| 20260504022729 | 57 | 126 | 0.0 | 0.0 | 0.00 | 0.00 | 0.00 | 67 | 1017.1 |
| 20260504022620 | 57 | 126 | 0.0 | 0.0 | 0.00 | 0.00 | 0.00 | 67 | 1017.0 |
| 20260504022527 | 57 | 126 | 0.0 | 0.0 | 0.00 | 0.00 | 0.00 | 67 | 1017.0 |
| 20260504022415 | 57 | 126 | 0.0 | 0.0 | 0.00 | 0.00 | 0.00 | 67 | 1017.0 |
| 20260504022322 | 57 | 126 | 0.0 | 0.0 | 0.00 | 0.00 | 0.00 | 67 | 1017.0 |
| 20260504022228 | 57 | 126 | 0.0 | 0.0 | 0.00 | 0.00 | 0.00 | 67 | 1017.1 |
| 20260504022135 | 57 | 126 | 0.0 | 0.0 | 0.00 | 0.00 | 0.00 | 66 | 1017.0 |
| 20260504022110 | 57 | 126 | 0.0 | 0.0 | 0.00 | 0.00 | 0.00 | 66 | 1017.0 |
| 20260504021822 | 57 | 126 | 0.0 | 0.0 | 0.00 | 0.00 | 0.00 | 65 | 1016.9 |
| 20260504021709 | 58 | 126 | 0.0 | 0.0 | 0.00 | 0.00 | 0.00 | 65 | 1016.9 |
| 20260504021616 | 58 | 126 | 0.0 | 0.0 | 0.00 | 0.00 | 0.00 | 65 | 1016.9 |
| 20260504021544 | 58 | 126 | 0.0 | 0.0 | 0.00 | 0.00 | 0.00 | 65 | 1016.9 |
| 20260504021414 | 58 | 126 | 0.0 | 0.0 | 0.00 | 0.00 | 0.00 | 66 | 1017.0 |
| 20260504021321 | 58 | 126 | 0.0 | 0.0 | 0.00 | 0.00 | 0.00 | 66 | 1017.0 |
| 20260504021209 | 58 | 126 | 0.0 | 0.0 | 0.00 | 0.00 | 0.00 | 66 | 1016.9 |
| 20260504021117 | 58 | 126 | 0.0 | 0.0 | 0.00 | 0.00 | 0.00 | 66 | 1017.0 |
| 20260504021025 | 58 | 126 | 0.0 | 0.0 | 0.00 | 0.00 | 0.00 | 65 | 1017.0 |
| 20260504020913 | 58 | 126 | 0.0 | 0.0 | 0.00 | 0.00 | 0.00 | 65 | 1016.9 |
| 20260504020823 | 58 | 126 | 0.0 | 0.0 | 0.00 | 0.00 | 0.00 | 64 | 1016.9 |
| 20260504020710 | 58 | 126 | 0.0 | 0.0 | 0.00 | 0.00 | 0.00 | 64 | 1016.9 |
| 20260504020637 | 58 | 126 | 0.0 | 0.0 | 0.00 | 0.00 | 0.00 | 63 | 1016.8 |
| 20260504020547 | 58 | 126 | 0.0 | 0.0 | 0.00 | 0.00 | 0.00 | 63 | 1016.8 |
| 20260504020321 | 59 | 126 | 0.0 | 0.0 | 0.00 | 0.00 | 0.00 | 63 | 1016.8 |
| 20260504020214 | 59 | 126 | 0.0 | 0.0 | 0.00 | 0.00 | 0.00 | 62 | 1016.8 |
| 20260504020121 | 59 | 126 | 0.0 | 0.0 | 0.00 | 0.00 | 0.00 | 62 | 1016.8 |
| 20260504020027 | 59 | 126 | 0.0 | 0.0 | 0.00 | 0.00 | 0.00 | 62 | 1016.8 |
| 20260504015915 | 59 | 126 | 0.0 | 0.0 | 0.00 | 0.00 | 0.00 | 62 | 1016.7 |
| 20260504015823 | 59 | 126 | 0.0 | 0.0 | 0.00 | 0.00 | 0.00 | 61 | 1016.7 |
| 20260504015714 | 59 | 126 | 0.0 | 0.0 | 0.00 | 0.00 | 0.00 | 61 | 1016.8 |
| 20260504015622 | 59 | 126 | 0.0 | 0.0 | 0.00 | 0.00 | 0.00 | 61 | 1016.8 |
| 20260504015509 | 59 | 126 | 0.0 | 0.0 | 0.00 | 0.00 | 0.00 | 61 | 1016.8 |
| 20260504015417 | 59 | 126 | 0.0 | 0.0 | 0.00 | 0.00 | 0.00 | 61 | 1016.8 |
| 20260504015323 | 59 | 126 | 0.0 | 0.0 | 0.00 | 0.00 | 0.00 | 60 | 1016.8 |
| 20260504015214 | 59 | 126 | 0.0 | 0.0 | 0.00 | 0.00 | 0.00 | 60 | 1016.8 |
| 20260504015142 | 60 | 126 | 0.0 | 0.0 | 0.00 | 0.00 | 0.00 | 60 | 1016.8 |
| 20260504015051 | 60 | 126 | 0.0 | 0.0 | 0.00 | 0.00 | 0.00 | 60 | 1016.7 |
| 20260504014826 | 60 | 126 | 0.0 | 0.0 | 0.00 | 0.00 | 0.00 | 61 | 1016.7 |
| 20260504014713 | 60 | 126 | 0.0 | 0.0 | 0.00 | 0.00 | 0.00 | 61 | 1016.8 |
| 20260504014641 | 60 | 126 | 0.0 | 0.0 | 0.00 | 0.00 | 0.00 | 60 | 1016.7 |
| 20260504014532 | 60 | 126 | 0.0 | 0.0 | 0.00 | 0.00 | 0.00 | 61 | 1016.6 |
| 20260504014420 | 60 | 126 | 0.0 | 0.0 | 0.00 | 0.00 | 0.00 | 61 | 1016.7 |
| 20260504014327 | 60 | 126 | 0.0 | 0.0 | 0.00 | 0.00 | 0.00 | 61 | 1016.7 |
| 20260504014214 | 60 | 126 | 0.0 | 0.0 | 0.00 | 0.00 | 0.00 | 60 | 1016.5 |
| 20260504014121 | 60 | 126 | 0.0 | 0.0 | 0.00 | 0.00 | 0.00 | 60 | 1016.5 |
| 20260504014011 | 60 | 126 | 0.0 | 0.0 | 0.00 | 0.00 | 0.00 | 59 | 1016.4 |
| 20260504013939 | 61 | 126 | 0.0 | 0.0 | 0.00 | 0.00 | 0.00 | 58 | 1016.5 |
| 20260504013826 | 61 | 126 | 0.0 | 0.0 | 0.00 | 0.00 | 0.00 | 57 | 1016.5 |
| 20260504013734 | 61 | 126 | 0.0 | 0.0 | 0.00 | 0.00 | 0.00 | 57 | 1016.4 |
| 20260504013621 | 61 | 126 | 0.0 | 0.0 | 0.00 | 0.00 | 0.00 | 57 | 1016.4 |
| 20260504013552 | 61 | 126 | 0.0 | 0.0 | 0.00 | 0.00 | 0.00 | 56 | 1016.3 |
| 20260504013330 | 61 | 126 | 0.0 | 0.0 | 0.00 | 0.00 | 0.00 | 56 | 1016.3 |
| 20260504013236 | 61 | 126 | 0.0 | 0.0 | 0.00 | 0.00 | 0.00 | 55 | 1016.2 |
| 20260504013143 | 61 | 126 | 0.0 | 0.0 | 0.00 | 0.00 | 0.00 | 54 | 1016.2 |
| 20260504013028 | 61 | 126 | 0.0 | 0.0 | 0.00 | 0.00 | 0.00 | 54 | 1016.2 |
| 20260504012917 | 62 | 126 | 0.0 | 0.0 | 0.00 | 0.00 | 0.00 | 54 | 1016.3 |
| 20260504012825 | 62 | 126 | 0.0 | 0.0 | 0.00 | 0.00 | 0.00 | 54 | 1016.3 |
| 20260504012716 | 62 | 126 | 0.0 | 0.0 | 0.00 | 0.00 | 0.00 | 54 | 1016.2 |
| 20260504012624 | 62 | 126 | 0.0 | 1.0 | 0.00 | 0.00 | 0.00 | 53 | 1016.2 |
| 20260504012511 | 62 | 126 | 0.0 | 1.0 | 0.00 | 0.00 | 0.00 | 53 | 1016.1 |
| 20260504012419 | 62 | 126 | 0.0 | 1.0 | 0.00 | 0.00 | 0.00 | 53 | 1016.1 |
| 20260504012327 | 62 | 126 | 0.0 | 1.0 | 0.00 | 0.00 | 0.00 | 53 | 1016.1 |
| 20260504012214 | 62 | 126 | 0.0 | 1.0 | 0.00 | 0.00 | 0.00 | 53 | 1016.1 |
| 20260504012125 | 62 | 126 | 0.0 | 1.0 | 0.00 | 0.00 | 0.00 | 53 | 1016.1 |
| 20260504012056 | 62 | 126 | 0.0 | 2.0 | 0.00 | 0.00 | 0.00 | 53 | 1016.0 |
| 20260504011809 | 62 | 126 | 0.0 | 2.0 | 0.00 | 0.00 | 0.00 | 52 | 1016.0 |
| 20260504011717 | 62 | 126 | 0.0 | 2.0 | 0.00 | 0.00 | 0.00 | 52 | 1016.0 |
| 20260504011643 | 62 | 126 | 0.0 | 2.0 | 0.00 | 0.00 | 0.00 | 52 | 1016.0 |
| 20260504011513 | 62 | 126 | 1.0 | 2.0 | 0.00 | 0.00 | 0.00 | 52 | 1016.0 |
| 20260504011441 | 62 | 126 | 1.0 | 2.0 | 0.00 | 0.00 | 0.00 | 51 | 1016.0 |
| 20260504011328 | 62 | 126 | 1.0 | 2.0 | 0.00 | 0.00 | 0.00 | 51 | 1016.0 |
| 20260504011214 | 62 | 126 | 1.0 | 2.0 | 0.00 | 0.00 | 0.00 | 51 | 1016.0 |
| 20260504011122 | 62 | 126 | 2.0 | 2.0 | 0.00 | 0.00 | 0.00 | 52 | 1016.0 |
| 20260504011014 | 62 | 126 | 2.0 | 2.0 | 0.00 | 0.00 | 0.00 | 51 | 1016.0 |
| 20260504010922 | 63 | 126 | 1.0 | 2.0 | 0.00 | 0.00 | 0.00 | 51 | 1016.0 |
| 20260504010809 | 63 | 126 | 2.0 | 2.0 | 0.00 | 0.00 | 0.00 | 51 | 1015.9 |
| 20260504010736 | 63 | 126 | 1.0 | 2.0 | 0.00 | 0.00 | 0.00 | 50 | 1016.0 |
| 20260504010642 | 63 | 126 | 1.0 | 2.0 | 0.00 | 0.00 | 0.00 | 47 | 1016.0 |
| 20260504010551 | 63 | 126 | 1.0 | 2.0 | 0.00 | 0.00 | 0.00 | 47 | 1016.0 |
| 20260504010328 | 63 | 226 | 1.0 | 2.0 | 0.00 | 0.00 | 0.00 | 46 | 1016.0 |
| 20260504010215 | 63 | 226 | 2.0 | 2.0 | 0.00 | 0.00 | 0.00 | 47 | 1016.0 |
| 20260504010122 | 63 | 226 | 2.0 | 2.0 | 0.00 | 0.00 | 0.00 | 47 | 1016.0 |
| 20260504010010 | 63 | 229 | 1.0 | 2.0 | 0.00 | 0.00 | 0.00 | 47 | 1016.0 |
| 20260504005918 | 63 | 229 | 1.0 | 2.0 | 0.00 | 0.00 | 0.00 | 47 | 1016.0 |
| 20260504005810 | 63 | 229 | 1.0 | 2.0 | 0.00 | 0.00 | 0.00 | 47 | 1016.0 |
| 20260504005716 | 63 | 229 | 1.0 | 2.0 | 0.00 | 0.00 | 0.00 | 47 | 1016.0 |
| 20260504005644 | 63 | 229 | 1.0 | 2.0 | 0.00 | 0.00 | 0.00 | 47 | 1016.0 |
| 20260504005530 | 63 | 229 | 1.0 | 2.0 | 0.00 | 0.00 | 0.00 | 47 | 1015.9 |
| 20260504005418 | 64 | 229 | 0.0 | 3.0 | 0.00 | 0.00 | 0.00 | 47 | 1016.0 |
| 20260504005344 | 64 | 229 | 0.0 | 3.0 | 0.00 | 0.00 | 0.00 | 46 | 1016.0 |
| 20260504005228 | 64 | 229 | 0.0 | 3.0 | 0.00 | 0.00 | 0.00 | 45 | 1016.0 |
| 20260504005155 | 64 | 229 | 1.0 | 3.0 | 0.00 | 0.00 | 0.00 | 46 | 1016.0 |
| 20260504005110 | 64 | 229 | 1.0 | 3.0 | 0.00 | 0.00 | 0.00 | 45 | 1016.0 |
| 20260504004843 | 64 | 229 | 2.0 | 3.0 | 0.00 | 0.00 | 0.00 | 45 | 1016.1 |
| 20260504004709 | 64 | 229 | 1.0 | 3.0 | 0.00 | 0.00 | 0.00 | 45 | 1016.0 |
| 20260504004616 | 64 | 246 | 1.0 | 3.0 | 0.00 | 0.00 | 0.00 | 45 | 1016.0 |
| 20260504004524 | 64 | 265 | 1.0 | 2.0 | 0.00 | 0.00 | 0.00 | 45 | 1016.0 |
| 20260504004416 | 64 | 265 | 1.0 | 2.0 | 0.00 | 0.00 | 0.00 | 45 | 1016.0 |
| 20260504004322 | 64 | 265 | 0.0 | 1.0 | 0.00 | 0.00 | 0.00 | 44 | 1016.0 |
| 20260504004209 | 64 | 265 | 0.0 | 1.0 | 0.00 | 0.00 | 0.00 | 45 | 1015.9 |
| 20260504004116 | 65 | 265 | 0.0 | 1.0 | 0.00 | 0.00 | 0.00 | 44 | 1016.0 |
| 20260504004024 | 65 | 265 | 0.0 | 1.0 | 0.00 | 0.00 | 0.00 | 44 | 1016.0 |
| 20260504003916 | 65 | 265 | 0.0 | 1.0 | 0.00 | 0.00 | 0.00 | 44 | 1016.0 |
| 20260504003824 | 65 | 265 | 0.0 | 1.0 | 0.00 | 0.00 | 0.00 | 44 | 1016.0 |
| 20260504003712 | 65 | 265 | 0.0 | 2.0 | 0.00 | 0.00 | 0.00 | 44 | 1016.0 |
| 20260504003554 | 65 | 265 | 0.0 | 2.0 | 0.00 | 0.00 | 0.00 | 44 | 1015.9 |
| 20260504003328 | 65 | 265 | 0.0 | 2.0 | 0.00 | 0.00 | 0.00 | 43 | 1015.8 |
| 20260504003214 | 65 | 265 | 1.0 | 2.0 | 0.00 | 0.00 | 0.00 | 43 | 1015.9 |
| 20260504003121 | 65 | 265 | 1.0 | 2.0 | 0.00 | 0.00 | 0.00 | 43 | 1015.9 |
| 20260504003028 | 65 | 265 | 1.0 | 2.0 | 0.00 | 0.00 | 0.00 | 44 | 1015.9 |
| 20260504002916 | 65 | 265 | 1.0 | 2.0 | 0.00 | 0.00 | 0.00 | 43 | 1016.0 |
| 20260504002827 | 65 | 269 | 0.0 | 2.0 | 0.00 | 0.00 | 0.00 | 43 | 1016.0 |
| 20260504002715 | 65 | 270 | 0.0 | 3.0 | 0.00 | 0.00 | 0.00 | 43 | 1016.0 |
| 20260504002623 | 65 | 270 | 1.0 | 3.0 | 0.00 | 0.00 | 0.00 | 44 | 1016.0 |
| 20260504002511 | 66 | 270 | 1.0 | 3.0 | 0.00 | 0.00 | 0.00 | 44 | 1016.0 |
| 20260504002419 | 66 | 280 | 0.0 | 3.0 | 0.00 | 0.00 | 0.00 | 43 | 1016.1 |
| 20260504002310 | 66 | 280 | 0.0 | 3.0 | 0.00 | 0.00 | 0.00 | 43 | 1016.1 |
| 20260504002219 | 66 | 280 | 1.0 | 3.0 | 0.00 | 0.00 | 0.00 | 43 | 1016.1 |
| 20260504002125 | 66 | 280 | 1.0 | 3.0 | 0.00 | 0.00 | 0.00 | 42 | 1016.1 |
| 20260504002055 | 66 | 280 | 1.0 | 3.0 | 0.00 | 0.00 | 0.00 | 43 | 1016.1 |
| 20260504001809 | 66 | 285 | 1.0 | 3.0 | 0.00 | 0.00 | 0.00 | 43 | 1016.2 |
| 20260504001720 | 66 | 285 | 1.0 | 3.0 | 0.00 | 0.00 | 0.00 | 42 | 1016.2 |
| 20260504001627 | 66 | 282 | 2.0 | 3.0 | 0.00 | 0.00 | 0.00 | 42 | 1016.1 |
| 20260504001514 | 66 | 315 | 2.0 | 3.0 | 0.00 | 0.00 | 0.00 | 42 | 1016.1 |
| 20260504001441 | 66 | 322 | 1.0 | 3.0 | 0.00 | 0.00 | 0.00 | 42 | 1016.1 |
| 20260504001327 | 66 | 297 | 1.0 | 3.0 | 0.00 | 0.00 | 0.00 | 41 | 1016.2 |
| 20260504001215 | 66 | 330 | 1.0 | 3.0 | 0.00 | 0.00 | 0.00 | 41 | 1016.2 |
| 20260504001126 | 67 | 330 | 2.0 | 4.0 | 0.00 | 0.00 | 0.00 | 41 | 1016.2 |
| 20260504001014 | 67 | 298 | 2.0 | 4.0 | 0.00 | 0.00 | 0.00 | 41 | 1016.2 |
| 20260504000921 | 67 | 301 | 2.0 | 4.0 | 0.00 | 0.00 | 0.00 | 41 | 1016.2 |
| 20260504000827 | 67 | 283 | 1.0 | 5.0 | 0.00 | 0.00 | 0.00 | 41 | 1016.2 |
| 20260504000714 | 67 | 280 | 1.0 | 5.0 | 0.00 | 0.00 | 0.00 | 41 | 1016.2 |
| 20260504000642 | 67 | 279 | 2.0 | 5.0 | 0.00 | 0.00 | 0.00 | 41 | 1016.2 |
| 20260504000555 | 67 | 288 | 2.0 | 5.0 | 0.00 | 0.00 | 0.00 | 41 | 1016.2 |
| 20260504000328 | 67 | 297 | 3.0 | 5.0 | 0.00 | 0.00 | 0.00 | 41 | 1016.1 |
| 20260504000214 | 67 | 316 | 3.0 | 6.0 | 0.00 | 0.00 | 0.00 | 40 | 1016.2 |
| 20260504000121 | 67 | 302 | 3.0 | 6.0 | 0.00 | 0.00 | 0.00 | 40 | 1016.2 |
| 20260504000013 | 67 | 327 | 3.0 | 6.0 | 0.00 | 0.00 | 0.00 | 40 | 1016.2 |
| 20260503235921 | 68 | 313 | 3.0 | 6.0 | 0.00 | 0.00 | 0.00 | 40 | 1016.2 |
| 20260503235828 | 68 | 306 | 3.0 | 6.0 | 0.00 | 0.00 | 0.00 | 40 | 1016.3 |
| 20260503235715 | 68 | 292 | 3.0 | 6.0 | 0.00 | 0.00 | 0.00 | 39 | 1016.3 |
| 20260503235622 | 68 | 326 | 3.0 | 6.0 | 0.00 | 0.00 | 0.00 | 39 | 1016.3 |
| 20260503235530 | 68 | 327 | 4.0 | 6.0 | 0.00 | 0.00 | 0.00 | 39 | 1016.2 |
| 20260503235420 | 68 | 294 | 4.0 | 7.0 | 0.00 | 0.00 | 0.00 | 39 | 1016.2 |
| 20260503235347 | 68 | 328 | 3.0 | 7.0 | 0.00 | 0.00 | 0.00 | 39 | 1016.3 |
| 20260503235214 | 68 | 298 | 3.0 | 7.0 | 0.00 | 0.00 | 0.00 | 38 | 1016.3 |
| 20260503235121 | 68 | 279 | 3.0 | 6.0 | 0.00 | 0.00 | 0.00 | 38 | 1016.3 |
| 20260503235052 | 68 | 305 | 3.0 | 6.0 | 0.00 | 0.00 | 0.00 | 38 | 1016.2 |
| 20260503234809 | 69 | 337 | 2.0 | 6.0 | 0.00 | 0.00 | 0.00 | 39 | 1016.3 |
| 20260503234717 | 69 | 330 | 1.0 | 6.0 | 0.00 | 0.00 | 0.00 | 39 | 1016.3 |
| 20260503234624 | 69 | 317 | 1.0 | 6.0 | 0.00 | 0.00 | 0.00 | 39 | 1016.3 |
| 20260503234532 | 69 | 292 | 2.0 | 6.0 | 0.00 | 0.00 | 0.00 | 39 | 1016.2 |
| 20260503234418 | 69 | 325 | 3.0 | 8.0 | 0.00 | 0.00 | 0.00 | 39 | 1016.3 |
| 20260503234324 | 69 | 288 | 4.0 | 8.0 | 0.00 | 0.00 | 0.00 | 38 | 1016.3 |
| 20260503234235 | 69 | 326 | 4.0 | 8.0 | 0.00 | 0.00 | 0.00 | 38 | 1016.3 |
| 20260503234122 | 69 | 324 | 4.0 | 8.0 | 0.00 | 0.00 | 0.00 | 38 | 1016.3 |
| 20260503234049 | 69 | 293 | 4.0 | 8.0 | 0.00 | 0.00 | 0.00 | 38 | 1016.3 |
| 20260503233914 | 69 | 270 | 4.0 | 8.0 | 0.00 | 0.00 | 0.00 | 38 | 1016.4 |
| 20260503233842 | 69 | 323 | 4.0 | 8.0 | 0.00 | 0.00 | 0.00 | 38 | 1016.4 |
| 20260503233709 | 69 | 301 | 5.0 | 8.0 | 0.00 | 0.00 | 0.00 | 38 | 1016.4 |
| 20260503233637 | 69 | 312 | 5.0 | 8.0 | 0.00 | 0.00 | 0.00 | 38 | 1016.4 |
| 20260503233611 | 69 | 313 | 5.0 | 8.0 | 0.00 | 0.00 | 0.00 | 38 | 1016.4 |
| 20260503233322 | 69 | 317 | 5.0 | 8.0 | 0.00 | 0.00 | 0.00 | 38 | 1016.4 |
| 20260503233250 | 69 | 309 | 4.0 | 9.0 | 0.00 | 0.00 | 0.00 | 38 | 1016.4 |
| 20260503233116 | 69 | 323 | 3.0 | 9.0 | 0.00 | 0.00 | 0.00 | 39 | 1016.4 |
| 20260503233023 | 69 | 290 | 4.0 | 9.0 | 0.00 | 0.00 | 0.00 | 39 | 1016.4 |
| 20260503232935 | 69 | 319 | 3.0 | 9.0 | 0.00 | 0.00 | 0.00 | 38 | 1016.3 |
| 20260503232820 | 69 | 305 | 3.0 | 9.0 | 0.00 | 0.00 | 0.00 | 38 | 1016.3 |
| 20260503232726 | 69 | 330 | 3.0 | 9.0 | 0.00 | 0.00 | 0.00 | 39 | 1016.4 |
| 20260503232614 | 69 | 287 | 3.0 | 9.0 | 0.00 | 0.00 | 0.00 | 38 | 1016.4 |
| 20260503232521 | 69 | 317 | 4.0 | 9.0 | 0.00 | 0.00 | 0.00 | 38 | 1016.4 |
| 20260503232409 | 69 | 311 | 6.0 | 9.0 | 0.00 | 0.00 | 0.00 | 38 | 1016.4 |
| 20260503232341 | 69 | 292 | 6.0 | 9.0 | 0.00 | 0.00 | 0.00 | 38 | 1016.4 |
| 20260503232228 | 69 | 288 | 5.0 | 9.0 | 0.00 | 0.00 | 0.00 | 38 | 1016.4 |
| 20260503232114 | 69 | 297 | 4.0 | 9.0 | 0.00 | 0.00 | 0.00 | 37 | 1016.5 |
| 20260503232045 | 69 | 265 | 4.0 | 9.0 | 0.00 | 0.00 | 0.00 | 37 | 1016.5 |
| 20260503231819 | 69 | 291 | 4.0 | 9.0 | 0.00 | 0.00 | 0.00 | 38 | 1016.6 |
| 20260503231710 | 69 | 306 | 4.0 | 10.0 | 0.00 | 0.00 | 0.00 | 37 | 1016.5 |
| 20260503231638 | 69 | 246 | 5.0 | 10.0 | 0.00 | 0.00 | 0.00 | 37 | 1016.6 |
| 20260503231546 | 69 | 278 | 5.0 | 11.0 | 0.00 | 0.00 | 0.00 | 36 | 1016.6 |
| 20260503231411 | 69 | 261 | 4.0 | 11.0 | 0.00 | 0.00 | 0.00 | 36 | 1016.5 |
| 20260503231318 | 69 | 279 | 4.0 | 11.0 | 0.00 | 0.00 | 0.00 | 36 | 1016.6 |
| 20260503231225 | 69 | 284 | 4.0 | 10.0 | 0.00 | 0.00 | 0.00 | 36 | 1016.6 |
| 20260503231116 | 69 | 309 | 6.0 | 15.0 | 0.00 | 0.00 | 0.00 | 36 | 1016.6 |
| 20260503231023 | 69 | 303 | 7.0 | 15.0 | 0.00 | 0.00 | 0.00 | 36 | 1016.6 |
| 20260503230911 | 69 | 286 | 7.0 | 15.0 | 0.00 | 0.00 | 0.00 | 36 | 1016.5 |
| 20260503230819 | 69 | 299 | 7.0 | 15.0 | 0.00 | 0.00 | 0.00 | 37 | 1016.5 |
| 20260503230725 | 69 | 301 | 7.0 | 15.0 | 0.00 | 0.00 | 0.00 | 37 | 1016.5 |
| 20260503230616 | 69 | 269 | 8.0 | 15.0 | 0.00 | 0.00 | 0.00 | 37 | 1016.6 |
| 20260503230547 | 69 | 293 | 8.0 | 15.0 | 0.00 | 0.00 | 0.00 | 37 | 1016.6 |
| 20260503230321 | 69 | 250 | 7.0 | 15.0 | 0.00 | 0.00 | 0.00 | 36 | 1016.5 |
| 20260503230210 | 69 | 257 | 5.0 | 9.0 | 0.00 | 0.00 | 0.00 | 36 | 1016.5 |
| 20260503230117 | 70 | 261 | 3.0 | 10.0 | 0.00 | 0.00 | 0.00 | 36 | 1016.5 |
| 20260503230028 | 70 | 259 | 4.0 | 10.0 | 0.00 | 0.00 | 0.00 | 36 | 1016.5 |
| 20260503225915 | 70 | 226 | 5.0 | 10.0 | 0.00 | 0.00 | 0.00 | 36 | 1016.6 |
| 20260503225843 | 70 | 249 | 4.0 | 10.0 | 0.00 | 0.00 | 0.00 | 36 | 1016.6 |
| 20260503225728 | 70 | 290 | 4.0 | 10.0 | 0.00 | 0.00 | 0.00 | 36 | 1016.7 |
| 20260503225615 | 70 | 192 | 4.0 | 10.0 | 0.00 | 0.00 | 0.00 | 37 | 1016.6 |
| 20260503225522 | 70 | 236 | 3.0 | 10.0 | 0.00 | 0.00 | 0.00 | 38 | 1016.6 |
| 20260503225413 | 70 | 277 | 5.0 | 11.0 | 0.00 | 0.00 | 0.00 | 37 | 1016.7 |
| 20260503225321 | 70 | 312 | 6.0 | 11.0 | 0.00 | 0.00 | 0.00 | 37 | 1016.7 |
| 20260503225248 | 70 | 329 | 6.0 | 11.0 | 0.00 | 0.00 | 0.00 | 36 | 1016.6 |
| 20260503225115 | 70 | 301 | 5.0 | 11.0 | 0.00 | 0.00 | 0.00 | 37 | 1016.7 |
| 20260503225045 | 70 | 300 | 5.0 | 11.0 | 0.00 | 0.00 | 0.00 | 37 | 1016.7 |
| 20260503224822 | 70 | 314 | 6.0 | 11.0 | 0.00 | 0.00 | 0.00 | 37 | 1016.7 |
| 20260503224729 | 70 | 273 | 7.0 | 11.0 | 0.00 | 0.00 | 0.00 | 37 | 1016.7 |
| 20260503224618 | 70 | 282 | 7.0 | 11.0 | 0.00 | 0.00 | 0.00 | 37 | 1016.6 |
| 20260503224523 | 70 | 271 | 8.0 | 11.0 | 0.00 | 0.00 | 0.00 | 38 | 1016.6 |
| 20260503224431 | 70 | 313 | 7.0 | 11.0 | 0.00 | 0.00 | 0.00 | 38 | 1016.6 |
| 20260503224317 | 70 | 312 | 6.0 | 9.0 | 0.00 | 0.00 | 0.00 | 38 | 1016.6 |
| 20260503224228 | 70 | 315 | 5.0 | 9.0 | 0.00 | 0.00 | 0.00 | 39 | 1016.6 |
| 20260503224116 | 70 | 261 | 4.0 | 9.0 | 0.00 | 0.00 | 0.00 | 39 | 1016.6 |
| 20260503224023 | 69 | 248 | 4.0 | 9.0 | 0.00 | 0.00 | 0.00 | 38 | 1016.6 |
| 20260503223910 | 70 | 229 | 5.0 | 9.0 | 0.00 | 0.00 | 0.00 | 37 | 1016.6 |
| 20260503223818 | 70 | 211 | 5.0 | 10.0 | 0.00 | 0.00 | 0.00 | 38 | 1016.6 |
| 20260503223725 | 69 | 269 | 5.0 | 10.0 | 0.00 | 0.00 | 0.00 | 38 | 1016.6 |
| 20260503223616 | 69 | 264 | 5.0 | 10.0 | 0.00 | 0.00 | 0.00 | 39 | 1016.6 |
| 20260503223547 | 69 | 331 | 5.0 | 10.0 | 0.00 | 0.00 | 0.00 | 39 | 1016.6 |
| 20260503223320 | 69 | 255 | 5.0 | 10.0 | 0.00 | 0.00 | 0.00 | 39 | 1016.7 |
| 20260503223227 | 69 | 289 | 4.0 | 10.0 | 0.00 | 0.00 | 0.00 | 39 | 1016.8 |
| 20260503223117 | 69 | 299 | 6.0 | 10.0 | 0.00 | 0.00 | 0.00 | 39 | 1016.6 |
| 20260503223024 | 69 | 242 | 5.0 | 10.0 | 0.00 | 0.00 | 0.00 | 40 | 1016.6 |
| 20260503222911 | 69 | 268 | 3.0 | 9.0 | 0.00 | 0.00 | 0.00 | 40 | 1016.6 |
| 20260503222820 | 69 | 322 | 4.0 | 9.0 | 0.00 | 0.00 | 0.00 | 40 | 1016.6 |
| 20260503222727 | 69 | 323 | 5.0 | 9.0 | 0.00 | 0.00 | 0.00 | 39 | 1016.6 |
| 20260503222620 | 69 | 279 | 5.0 | 9.0 | 0.00 | 0.00 | 0.00 | 39 | 1016.7 |
| 20260503222527 | 69 | 230 | 4.0 | 12.0 | 0.00 | 0.00 | 0.00 | 38 | 1016.6 |
| 20260503222434 | 69 | 292 | 4.0 | 12.0 | 0.00 | 0.00 | 0.00 | 38 | 1016.8 |
| 20260503222320 | 69 | 229 | 4.0 | 12.0 | 0.00 | 0.00 | 0.00 | 38 | 1016.8 |
| 20260503222228 | 69 | 86 | 6.0 | 12.0 | 0.00 | 0.00 | 0.00 | 37 | 1016.7 |
| 20260503222115 | 69 | 198 | 6.0 | 12.0 | 0.00 | 0.00 | 0.00 | 35 | 1016.8 |
| 20260503222050 | 69 | 206 | 5.0 | 12.0 | 0.00 | 0.00 | 0.00 | 36 | 1016.8 |
| 20260503221823 | 70 | 200 | 6.0 | 12.0 | 0.00 | 0.00 | 0.00 | 37 | 1016.9 |
| 20260503221709 | 70 | 250 | 7.0 | 11.0 | 0.00 | 0.00 | 0.00 | 39 | 1017.0 |
| 20260503221617 | 70 | 255 | 6.0 | 10.0 | 0.00 | 0.00 | 0.00 | 38 | 1016.9 |
| 20260503221525 | 70 | 277 | 5.0 | 10.0 | 0.00 | 0.00 | 0.00 | 38 | 1016.9 |
| 20260503221416 | 70 | 268 | 4.0 | 10.0 | 0.00 | 0.00 | 0.00 | 38 | 1017.0 |
| 20260503221324 | 70 | 246 | 4.0 | 13.0 | 0.00 | 0.00 | 0.00 | 38 | 1017.0 |
| 20260503221212 | 70 | 243 | 5.0 | 13.0 | 0.00 | 0.00 | 0.00 | 37 | 1017.1 |
| 20260503221119 | 70 | 257 | 6.0 | 13.0 | 0.00 | 0.00 | 0.00 | 37 | 1017.1 |
| 20260503221046 | 70 | 232 | 6.0 | 13.0 | 0.00 | 0.00 | 0.00 | 37 | 1017.1 |
| 20260503220915 | 70 | 241 | 6.0 | 13.0 | 0.00 | 0.00 | 0.00 | 37 | 1017.0 |
| 20260503220823 | 70 | 249 | 7.0 | 13.0 | 0.00 | 0.00 | 0.00 | 37 | 1017.0 |
| 20260503220711 | 70 | 207 | 8.0 | 13.0 | 0.00 | 0.00 | 0.00 | 38 | 1017.0 |
| 20260503220619 | 70 | 265 | 6.0 | 13.0 | 0.00 | 0.00 | 0.00 | 39 | 1017.0 |
| 20260503220549 | 70 | 281 | 6.0 | 13.0 | 0.00 | 0.00 | 0.00 | 38 | 1017.0 |
| 20260503220328 | 70 | 289 | 5.0 | 12.0 | 0.00 | 0.00 | 0.00 | 39 | 1017.0 |
| 20260503220216 | 70 | 249 | 6.0 | 12.0 | 0.00 | 0.00 | 0.00 | 39 | 1017.1 |
| 20260503220123 | 70 | 262 | 5.0 | 12.0 | 0.00 | 0.00 | 0.00 | 38 | 1017.1 |
| 20260503220010 | 70 | 218 | 5.0 | 12.0 | 0.00 | 0.00 | 0.00 | 38 | 1017.1 |
| 20260503215917 | 70 | 220 | 6.0 | 12.0 | 0.00 | 0.00 | 0.00 | 38 | 1017.1 |
| 20260503215828 | 70 | 243 | 7.0 | 12.0 | 0.00 | 0.00 | 0.00 | 38 | 1017.1 |
| 20260503215714 | 70 | 281 | 7.0 | 14.0 | 0.00 | 0.00 | 0.00 | 39 | 1017.0 |
| 20260503215622 | 70 | 302 | 6.0 | 14.0 | 0.00 | 0.00 | 0.00 | 38 | 1017.0 |
| 20260503215510 | 70 | 271 | 4.0 | 14.0 | 0.00 | 0.00 | 0.00 | 38 | 1017.1 |
| 20260503215419 | 70 | 227 | 5.0 | 14.0 | 0.00 | 0.00 | 0.00 | 36 | 1017.1 |
| 20260503215345 | 70 | 251 | 4.0 | 14.0 | 0.00 | 0.00 | 0.00 | 37 | 1017.1 |
| 20260503215217 | 70 | 204 | 6.0 | 14.0 | 0.00 | 0.00 | 0.00 | 36 | 1017.1 |
| 20260503215124 | 70 | 221 | 7.0 | 14.0 | 0.00 | 0.00 | 0.00 | 35 | 1017.1 |
| 20260503215054 | 70 | 221 | 8.0 | 14.0 | 0.00 | 0.00 | 0.00 | 35 | 1017.1 |
| 20260503214827 | 70 | 219 | 7.0 | 14.0 | 0.00 | 0.00 | 0.00 | 37 | 1017.1 |
| 20260503214734 | 70 | 267 | 5.0 | 11.0 | 0.00 | 0.00 | 0.00 | 38 | 1017.1 |
| 20260503214625 | 70 | 251 | 5.0 | 11.0 | 0.00 | 0.00 | 0.00 | 38 | 1017.1 |
| 20260503214511 | 70 | 229 | 3.0 | 11.0 | 0.00 | 0.00 | 0.00 | 38 | 1017.2 |
| 20260503214418 | 70 | 278 | 4.0 | 11.0 | 0.00 | 0.00 | 0.00 | 38 | 1017.2 |
| 20260503214324 | 70 | 309 | 4.0 | 12.0 | 0.00 | 0.00 | 0.00 | 37 | 1017.2 |
| 20260503214211 | 70 | 246 | 3.0 | 12.0 | 0.00 | 0.00 | 0.00 | 37 | 1017.2 |
| 20260503214138 | 70 | 289 | 3.0 | 12.0 | 0.00 | 0.00 | 0.00 | 36 | 1017.2 |
| 20260503214009 | 70 | 277 | 5.0 | 12.0 | 0.00 | 0.00 | 0.00 | 36 | 1017.2 |
| 20260503213917 | 70 | 305 | 6.0 | 12.0 | 0.00 | 0.00 | 0.00 | 37 | 1017.2 |
| 20260503213826 | 70 | 274 | 6.0 | 12.0 | 0.00 | 0.00 | 0.00 | 38 | 1017.2 |
| 20260503213732 | 70 | 260 | 7.0 | 12.0 | 0.00 | 0.00 | 0.00 | 37 | 1017.3 |
| 20260503213618 | 70 | 275 | 7.0 | 12.0 | 0.00 | 0.00 | 0.00 | 37 | 1017.4 |
| 20260503213553 | 70 | 323 | 7.0 | 12.0 | 0.00 | 0.00 | 0.00 | 36 | 1017.4 |
| 20260503213328 | 70 | 281 | 7.0 | 12.0 | 0.00 | 0.00 | 0.00 | 37 | 1017.4 |
| 20260503213215 | 70 | 281 | 6.0 | 12.0 | 0.00 | 0.00 | 0.00 | 38 | 1017.4 |
| 20260503213123 | 70 | 286 | 5.0 | 12.0 | 0.00 | 0.00 | 0.00 | 38 | 1017.4 |
| 20260503213011 | 70 | 296 | 6.0 | 12.0 | 0.00 | 0.00 | 0.00 | 36 | 1017.4 |
| 20260503212943 | 70 | 302 | 6.0 | 12.0 | 0.00 | 0.00 | 0.00 | 36 | 1017.4 |
| 20260503212810 | 70 | 257 | 6.0 | 12.0 | 0.00 | 0.00 | 0.00 | 36 | 1017.4 |
| 20260503212719 | 70 | 244 | 6.0 | 12.0 | 0.00 | 0.00 | 0.00 | 37 | 1017.4 |
| 20260503212626 | 70 | 331 | 6.0 | 12.0 | 0.00 | 0.00 | 0.00 | 39 | 1017.4 |
| 20260503212513 | 70 | 282 | 7.0 | 12.0 | 0.00 | 0.00 | 0.00 | 38 | 1017.4 |
| 20260503212440 | 70 | 285 | 8.0 | 12.0 | 0.00 | 0.00 | 0.00 | 38 | 1017.4 |
| 20260503212311 | 70 | 273 | 7.0 | 11.0 | 0.00 | 0.00 | 0.00 | 39 | 1017.4 |
| 20260503212218 | 70 | 290 | 3.0 | 11.0 | 0.00 | 0.00 | 0.00 | 38 | 1017.5 |
| 20260503212126 | 70 | 329 | 3.0 | 14.0 | 0.00 | 0.00 | 0.00 | 38 | 1017.5 |
| 20260503212057 | 70 | 321 | 3.0 | 14.0 | 0.00 | 0.00 | 0.00 | 38 | 1017.4 |
| 20260503211815 | 70 | 240 | 5.0 | 14.0 | 0.00 | 0.00 | 0.00 | 36 | 1017.5 |
| 20260503211724 | 70 | 211 | 5.0 | 14.0 | 0.00 | 0.00 | 0.00 | 36 | 1017.5 |
| 20260503211613 | 70 | 219 | 5.0 | 14.0 | 0.00 | 0.00 | 0.00 | 37 | 1017.5 |
| 20260503211521 | 70 | 275 | 5.0 | 14.0 | 0.00 | 0.00 | 0.00 | 37 | 1017.5 |
| 20260503211428 | 70 | 261 | 6.0 | 14.0 | 0.00 | 0.00 | 0.00 | 38 | 1017.5 |
| 20260503211314 | 70 | 288 | 8.0 | 14.0 | 0.00 | 0.00 | 0.00 | 38 | 1017.6 |
| 20260503211226 | 70 | 295 | 9.0 | 14.0 | 0.00 | 0.00 | 0.00 | 38 | 1017.6 |
| 20260503211113 | 70 | 308 | 9.0 | 14.0 | 0.00 | 0.00 | 0.00 | 37 | 1017.5 |
| 20260503211021 | 70 | 315 | 7.0 | 12.0 | 0.00 | 0.00 | 0.00 | 37 | 1017.5 |
| 20260503210949 | 70 | 298 | 6.0 | 12.0 | 0.00 | 0.00 | 0.00 | 38 | 1017.6 |
| 20260503210816 | 70 | 315 | 5.0 | 12.0 | 0.00 | 0.00 | 0.00 | 38 | 1017.7 |
| 20260503210723 | 70 | 277 | 5.0 | 12.0 | 0.00 | 0.00 | 0.00 | 38 | 1017.7 |
| 20260503210614 | 70 | 264 | 6.0 | 12.0 | 0.00 | 0.00 | 0.00 | 37 | 1017.6 |
| 20260503210545 | 70 | 205 | 6.0 | 12.0 | 0.00 | 0.00 | 0.00 | 37 | 1017.6 |
| 20260503210319 | 70 | 320 | 6.0 | 12.0 | 0.00 | 0.00 | 0.00 | 37 | 1017.7 |
| 20260503210227 | 70 | 254 | 7.0 | 15.0 | 0.00 | 0.00 | 0.00 | 36 | 1017.7 |
| 20260503210119 | 70 | 290 | 7.0 | 15.0 | 0.00 | 0.00 | 0.00 | 36 | 1017.5 |
| 20260503210047 | 70 | 313 | 7.0 | 15.0 | 0.00 | 0.00 | 0.00 | 35 | 1017.5 |
| 20260503205933 | 70 | 302 | 5.0 | 15.0 | 0.00 | 0.00 | 0.00 | 37 | 1017.6 |
| 20260503205820 | 70 | 315 | 5.0 | 15.0 | 0.00 | 0.00 | 0.00 | 36 | 1017.6 |
| 20260503205727 | 70 | 275 | 6.0 | 15.0 | 0.00 | 0.00 | 0.00 | 39 | 1017.6 |
| 20260503205614 | 70 | 265 | 8.0 | 15.0 | 0.00 | 0.00 | 0.00 | 36 | 1017.6 |
| 20260503205525 | 70 | 254 | 9.0 | 15.0 | 0.00 | 0.00 | 0.00 | 36 | 1017.6 |
| 20260503205434 | 70 | 298 | 10.0 | 15.0 | 0.00 | 0.00 | 0.00 | 36 | 1017.6 |
| 20260503205321 | 70 | 321 | 7.0 | 13.0 | 0.00 | 0.00 | 0.00 | 37 | 1017.6 |
| 20260503205209 | 70 | 313 | 5.0 | 11.0 | 0.00 | 0.00 | 0.00 | 39 | 1017.6 |
| 20260503205116 | 70 | 284 | 6.0 | 11.0 | 0.00 | 0.00 | 0.00 | 37 | 1017.6 |
| 20260503205051 | 70 | 304 | 6.0 | 11.0 | 0.00 | 0.00 | 0.00 | 36 | 1017.6 |
| 20260503204825 | 70 | 305 | 7.0 | 11.0 | 0.00 | 0.00 | 0.00 | 38 | 1017.6 |
| 20260503204713 | 70 | 277 | 5.0 | 10.0 | 0.00 | 0.00 | 0.00 | 38 | 1017.6 |
| 20260503204621 | 70 | 214 | 4.0 | 10.0 | 0.00 | 0.00 | 0.00 | 37 | 1017.6 |
| 20260503204509 | 70 | 209 | 2.0 | 10.0 | 0.00 | 0.00 | 0.00 | 39 | 1017.7 |
| 20260503204417 | 70 | 192 | 3.0 | 10.0 | 0.00 | 0.00 | 0.00 | 38 | 1017.7 |
| 20260503204348 | 70 | 299 | 5.0 | 10.0 | 0.00 | 0.00 | 0.00 | 37 | 1017.7 |
| 20260503204213 | 70 | 307 | 5.0 | 10.0 | 0.00 | 0.00 | 0.00 | 38 | 1017.7 |
| 20260503204121 | 70 | 316 | 5.0 | 10.0 | 0.00 | 0.00 | 0.00 | 38 | 1017.7 |
| 20260503204028 | 70 | 291 | 6.0 | 10.0 | 0.00 | 0.00 | 0.00 | 38 | 1017.8 |
| 20260503203914 | 70 | 291 | 6.0 | 10.0 | 0.00 | 0.00 | 0.00 | 38 | 1017.8 |
| 20260503203822 | 70 | 306 | 5.0 | 10.0 | 0.00 | 0.00 | 0.00 | 37 | 1017.8 |
| 20260503203733 | 70 | 256 | 4.0 | 10.0 | 0.00 | 0.00 | 0.00 | 37 | 1017.8 |
| 20260503203620 | 70 | 227 | 4.0 | 10.0 | 0.00 | 0.00 | 0.00 | 37 | 1017.8 |
| 20260503203550 | 70 | 279 | 4.0 | 12.0 | 0.00 | 0.00 | 0.00 | 37 | 1017.7 |
| 20260503203344 | 70 | 296 | 6.0 | 12.0 | 0.00 | 0.00 | 0.00 | 38 | 1017.8 |
| 20260503203230 | 70 | 314 | 5.0 | 13.0 | 0.00 | 0.00 | 0.00 | 38 | 1017.9 |
| 20260503203120 | 70 | 360 | 3.0 | 13.0 | 0.00 | 0.00 | 0.00 | 37 | 1017.9 |
| 20260503203049 | 70 | 277 | 5.0 | 13.0 | 0.00 | 0.00 | 0.00 | 36 | 1017.9 |
| 20260503202914 | 70 | 292 | 6.0 | 13.0 | 0.00 | 0.00 | 0.00 | 37 | 1018.0 |
| 20260503202820 | 70 | 285 | 6.0 | 13.0 | 0.00 | 0.00 | 0.00 | 38 | 1018.0 |
| 20260503202729 | 70 | 232 | 8.0 | 13.0 | 0.00 | 0.00 | 0.00 | 37 | 1018.0 |
| 20260503202616 | 70 | 248 | 9.0 | 13.0 | 0.00 | 0.00 | 0.00 | 38 | 1018.0 |
| 20260503202528 | 69 | 277 | 8.0 | 13.0 | 0.00 | 0.00 | 0.00 | 37 | 1018.0 |
| 20260503202415 | 69 | 5 | 7.0 | 13.0 | 0.00 | 0.00 | 0.00 | 39 | 1018.0 |
| 20260503202322 | 69 | 269 | 5.0 | 10.0 | 0.00 | 0.00 | 0.00 | 40 | 1018.0 |
| 20260503202210 | 69 | 163 | 5.0 | 10.0 | 0.00 | 0.00 | 0.00 | 40 | 1018.1 |
| 20260503202137 | 69 | 256 | 4.0 | 10.0 | 0.00 | 0.00 | 0.00 | 37 | 1018.1 |
| 20260503202111 | 69 | 207 | 5.0 | 10.0 | 0.00 | 0.00 | 0.00 | 37 | 1018.0 |
| 20260503201823 | 69 | 294 | 4.0 | 11.0 | 0.00 | 0.00 | 0.00 | 40 | 1018.1 |
| 20260503201731 | 69 | 256 | 3.0 | 11.0 | 0.00 | 0.00 | 0.00 | 40 | 1018.1 |
| 20260503201617 | 69 | 208 | 4.0 | 11.0 | 0.00 | 0.00 | 0.00 | 40 | 1018.2 |
| 20260503201545 | 69 | 193 | 5.0 | 11.0 | 0.00 | 0.00 | 0.00 | 39 | 1018.2 |
| 20260503201411 | 69 | 243 | 7.0 | 11.0 | 0.00 | 0.00 | 0.00 | 40 | 1018.2 |
| 20260503201340 | 69 | 175 | 7.0 | 11.0 | 0.00 | 0.00 | 0.00 | 41 | 1018.2 |
| 20260503201209 | 69 | 311 | 4.0 | 10.0 | 0.00 | 0.00 | 0.00 | 41 | 1018.2 |
| 20260503201116 | 69 | 296 | 2.0 | 8.0 | 0.00 | 0.00 | 0.00 | 39 | 1018.2 |
| 20260503201024 | 69 | 303 | 3.0 | 8.0 | 0.00 | 0.00 | 0.00 | 39 | 1018.2 |
| 20260503200909 | 69 | 297 | 3.0 | 8.0 | 0.00 | 0.00 | 0.00 | 41 | 1018.3 |
| 20260503200837 | 69 | 311 | 2.0 | 10.0 | 0.00 | 0.00 | 0.00 | 39 | 1018.3 |
| 20260503200709 | 69 | 255 | 3.0 | 12.0 | 0.00 | 0.00 | 0.00 | 41 | 1018.4 |
| 20260503200616 | 69 | 257 | 4.0 | 12.0 | 0.00 | 0.00 | 0.00 | 40 | 1018.4 |
| 20260503200547 | 69 | 281 | 5.0 | 12.0 | 0.00 | 0.00 | 0.00 | 40 | 1018.4 |
| 20260503200320 | 69 | 290 | 5.0 | 12.0 | 0.00 | 0.00 | 0.00 | 41 | 1018.5 |
| 20260503200248 | 69 | 305 | 4.0 | 12.0 | 0.00 | 0.00 | 0.00 | 40 | 1018.5 |
| 20260503200119 | 69 | 281 | 6.0 | 12.0 | 0.00 | 0.00 | 0.00 | 42 | 1018.5 |
| 20260503200046 | 68 | 309 | 7.0 | 12.0 | 0.00 | 0.00 | 0.00 | 40 | 1018.5 |
| 20260503195933 | 68 | 281 | 7.0 | 12.0 | 0.00 | 0.00 | 0.00 | 42 | 1018.5 |
| 20260503195818 | 68 | 294 | 7.0 | 12.0 | 0.00 | 0.00 | 0.00 | 42 | 1018.5 |
| 20260503195726 | 68 | 265 | 7.0 | 12.0 | 0.00 | 0.00 | 0.00 | 40 | 1018.5 |
| 20260503195613 | 68 | 274 | 5.0 | 12.0 | 0.00 | 0.00 | 0.00 | 42 | 1018.6 |
| 20260503195521 | 68 | 281 | 4.0 | 12.0 | 0.00 | 0.00 | 0.00 | 42 | 1018.6 |
| 20260503195433 | 68 | 249 | 3.0 | 12.0 | 0.00 | 0.00 | 0.00 | 44 | 1018.6 |
| 20260503195340 | 68 | 236 | 4.0 | 12.0 | 0.00 | 0.00 | 0.00 | 43 | 1018.6 |
| 20260503195227 | 68 | 294 | 5.0 | 12.0 | 0.00 | 0.00 | 0.00 | 41 | 1018.7 |
| 20260503195115 | 68 | 232 | 5.0 | 12.0 | 0.00 | 0.00 | 0.00 | 42 | 1018.6 |
| 20260503195046 | 68 | 231 | 4.0 | 12.0 | 0.00 | 0.00 | 0.00 | 42 | 1018.6 |
| 20260503194823 | 68 | 311 | 5.0 | 12.0 | 0.00 | 0.00 | 0.00 | 41 | 1018.7 |
| 20260503194711 | 68 | 205 | 6.0 | 12.0 | 0.00 | 0.00 | 0.00 | 42 | 1018.7 |
| 20260503194617 | 68 | 248 | 6.0 | 12.0 | 0.00 | 0.00 | 0.00 | 42 | 1018.7 |
| 20260503194525 | 68 | 215 | 7.0 | 12.0 | 0.00 | 0.00 | 0.00 | 44 | 1018.7 |
| 20260503194412 | 68 | 289 | 5.0 | 12.0 | 0.00 | 0.00 | 0.00 | 42 | 1018.8 |
| 20260503194340 | 68 | 275 | 3.0 | 10.0 | 0.00 | 0.00 | 0.00 | 42 | 1018.8 |
| 20260503194211 | 68 | 186 | 5.0 | 10.0 | 0.00 | 0.00 | 0.00 | 40 | 1018.8 |
| 20260503194118 | 68 | 212 | 8.0 | 10.0 | 0.00 | 0.00 | 0.00 | 39 | 1018.9 |
| 20260503194026 | 68 | 182 | 7.0 | 10.0 | 0.00 | 0.00 | 0.00 | 39 | 1018.9 |
| 20260503193915 | 68 | 115 | 7.0 | 10.0 | 0.00 | 0.00 | 0.00 | 41 | 1018.9 |
| 20260503193842 | 68 | 188 | 5.0 | 15.0 | 0.00 | 0.00 | 0.00 | 39 | 1018.9 |
| 20260503193748 | 68 | 208 | 5.0 | 15.0 | 0.00 | 0.00 | 0.00 | 39 | 1018.9 |
| 20260503193620 | 68 | 240 | 6.0 | 15.0 | 0.00 | 0.00 | 0.00 | 41 | 1018.9 |
| 20260503193549 | 68 | 278 | 6.0 | 15.0 | 0.00 | 0.00 | 0.00 | 43 | 1018.9 |
| 20260503193323 | 68 | 261 | 7.0 | 15.0 | 0.00 | 0.00 | 0.00 | 44 | 1019.0 |
| 20260503193210 | 68 | 282 | 8.0 | 15.0 | 0.00 | 0.00 | 0.00 | 45 | 1019.0 |
| 20260503193116 | 68 | 269 | 8.0 | 15.0 | 0.00 | 0.00 | 0.00 | 43 | 1019.0 |
| 20260503193028 | 68 | 287 | 8.0 | 15.0 | 0.00 | 0.00 | 0.00 | 44 | 1019.0 |
| 20260503192916 | 68 | 269 | 4.0 | 11.0 | 0.00 | 0.00 | 0.00 | 43 | 1019.1 |
| 20260503192823 | 68 | 269 | 4.0 | 11.0 | 0.00 | 0.00 | 0.00 | 42 | 1019.1 |
| 20260503192711 | 68 | 257 | 5.0 | 11.0 | 0.00 | 0.00 | 0.00 | 42 | 1019.1 |
| 20260503192617 | 68 | 196 | 5.0 | 14.0 | 0.00 | 0.00 | 0.00 | 43 | 1019.1 |
| 20260503192509 | 68 | 213 | 5.0 | 14.0 | 0.00 | 0.00 | 0.00 | 43 | 1019.1 |
| 20260503192416 | 68 | 231 | 7.0 | 14.0 | 0.00 | 0.00 | 0.00 | 43 | 1019.1 |
| 20260503192325 | 68 | 227 | 8.0 | 14.0 | 0.00 | 0.00 | 0.00 | 43 | 1019.1 |
| 20260503192212 | 68 | 196 | 6.0 | 14.0 | 0.00 | 0.00 | 0.00 | 43 | 1019.2 |
| 20260503192140 | 68 | 212 | 6.0 | 14.0 | 0.00 | 0.00 | 0.00 | 44 | 1019.1 |
| 20260503192052 | 68 | 225 | 6.0 | 14.0 | 0.00 | 0.00 | 0.00 | 44 | 1019.1 |
| 20260503191825 | 68 | 298 | 5.0 | 14.0 | 0.00 | 0.00 | 0.00 | 45 | 1019.2 |
| 20260503191713 | 67 | 187 | 3.0 | 10.0 | 0.00 | 0.00 | 0.00 | 45 | 1019.2 |
| 20260503191622 | 67 | 252 | 4.0 | 10.0 | 0.00 | 0.00 | 0.00 | 46 | 1019.2 |
| 20260503191509 | 67 | 234 | 6.0 | 10.0 | 0.00 | 0.00 | 0.00 | 43 | 1019.4 |
| 20260503191436 | 67 | 201 | 6.0 | 10.0 | 0.00 | 0.00 | 0.00 | 43 | 1019.3 |
| 20260503191328 | 68 | 197 | 6.0 | 11.0 | 0.00 | 0.00 | 0.00 | 44 | 1019.3 |
| 20260503191215 | 68 | 196 | 7.0 | 11.0 | 0.00 | 0.00 | 0.00 | 43 | 1019.4 |
| 20260503191122 | 68 | 190 | 7.0 | 11.0 | 0.00 | 0.00 | 0.00 | 44 | 1019.4 |
| 20260503191010 | 68 | 215 | 6.0 | 12.0 | 0.00 | 0.00 | 0.00 | 43 | 1019.4 |
| 20260503190918 | 68 | 216 | 5.0 | 12.0 | 0.00 | 0.00 | 0.00 | 45 | 1019.5 |
| 20260503190825 | 68 | 236 | 6.0 | 12.0 | 0.00 | 0.00 | 0.00 | 45 | 1019.5 |
| 20260503190715 | 68 | 325 | 5.0 | 12.0 | 0.00 | 0.00 | 0.00 | 46 | 1019.4 |
| 20260503190641 | 68 | 249 | 5.0 | 12.0 | 0.00 | 0.00 | 0.00 | 48 | 1019.4 |
| 20260503190550 | 68 | 273 | 4.0 | 12.0 | 0.00 | 0.00 | 0.00 | 45 | 1019.5 |
| 20260503190325 | 68 | 237 | 6.0 | 12.0 | 0.00 | 0.00 | 0.00 | 45 | 1019.5 |
| 20260503190217 | 68 | 197 | 5.0 | 13.0 | 0.00 | 0.00 | 0.00 | 46 | 1019.5 |
| 20260503190145 | 68 | 173 | 5.0 | 12.0 | 0.00 | 0.00 | 0.00 | 47 | 1019.5 |
| 20260503190030 | 68 | 272 | 7.0 | 12.0 | 0.00 | 0.00 | 0.00 | 49 | 1019.6 |
| 20260503185938 | 68 | 155 | 7.0 | 12.0 | 0.00 | 0.00 | 0.00 | 48 | 1019.5 |
| 20260503185825 | 68 | 192 | 6.0 | 12.0 | 0.00 | 0.00 | 0.00 | 45 | 1019.5 |
| 20260503185734 | 68 | 217 | 4.0 | 11.0 | 0.00 | 0.00 | 0.00 | 45 | 1019.5 |
| 20260503185621 | 68 | 162 | 5.0 | 11.0 | 0.00 | 0.00 | 0.00 | 46 | 1019.5 |
| 20260503185547 | 68 | 201 | 6.0 | 11.0 | 0.00 | 0.00 | 0.00 | 45 | 1019.5 |
| 20260503185416 | 68 | 266 | 6.0 | 11.0 | 0.00 | 0.00 | 0.00 | 47 | 1019.6 |
| 20260503185323 | 68 | 151 | 5.0 | 9.0 | 0.00 | 0.00 | 0.00 | 46 | 1019.6 |
| 20260503185230 | 68 | 180 | 5.0 | 9.0 | 0.00 | 0.00 | 0.00 | 45 | 1019.6 |
| 20260503185116 | 68 | 293 | 4.0 | 9.0 | 0.00 | 0.00 | 0.00 | 46 | 1019.6 |
| 20260503185047 | 67 | 296 | 3.0 | 9.0 | 0.00 | 0.00 | 0.00 | 46 | 1019.6 |
| 20260503184841 | 67 | 355 | 4.0 | 9.0 | 0.00 | 0.00 | 0.00 | 46 | 1019.6 |
| 20260503184710 | 67 | 333 | 5.0 | 9.0 | 0.00 | 0.00 | 0.00 | 45 | 1019.5 |
| 20260503184618 | 67 | 264 | 4.0 | 9.0 | 0.00 | 0.00 | 0.00 | 45 | 1019.6 |
| 20260503184546 | 67 | 278 | 2.0 | 10.0 | 0.00 | 0.00 | 0.00 | 47 | 1019.6 |
| 20260503184432 | 67 | 186 | 2.0 | 10.0 | 0.00 | 0.00 | 0.00 | 42 | 1019.6 |
| 20260503184341 | 67 | 211 | 2.0 | 10.0 | 0.00 | 0.00 | 0.00 | 46 | 1019.6 |
| 20260503184227 | 67 | 342 | 2.0 | 10.0 | 0.00 | 0.00 | 0.00 | 44 | 1019.6 |
| 20260503184118 | 67 | 281 | 1.0 | 10.0 | 0.00 | 0.00 | 0.00 | 42 | 1019.6 |
| 20260503184025 | 67 | 333 | 2.0 | 10.0 | 0.00 | 0.00 | 0.00 | 42 | 1019.6 |
| 20260503183913 | 67 | 333 | 4.0 | 10.0 | 0.00 | 0.00 | 0.00 | 44 | 1019.7 |
| 20260503183821 | 67 | 319 | 5.0 | 10.0 | 0.00 | 0.00 | 0.00 | 43 | 1019.7 |
| 20260503183727 | 67 | 299 | 5.0 | 10.0 | 0.00 | 0.00 | 0.00 | 43 | 1019.7 |
| 20260503183654 | 67 | 286 | 3.0 | 10.0 | 0.00 | 0.00 | 0.00 | 43 | 1019.7 |
| 20260503183609 | 67 | 312 | 2.0 | 12.0 | 0.00 | 0.00 | 0.00 | 44 | 1019.7 |
| 20260503183321 | 67 | 311 | 2.0 | 12.0 | 0.00 | 0.00 | 0.00 | 45 | 1019.7 |
| 20260503183228 | 67 | 355 | 3.0 | 12.0 | 0.00 | 0.00 | 0.00 | 44 | 1019.7 |
| 20260503183115 | 67 | 325 | 6.0 | 12.0 | 0.00 | 0.00 | 0.00 | 44 | 1019.8 |
| 20260503183023 | 67 | 314 | 7.0 | 12.0 | 0.00 | 0.00 | 0.00 | 44 | 1019.8 |
| 20260503182917 | 67 | 318 | 6.0 | 12.0 | 0.00 | 0.00 | 0.00 | 45 | 1019.8 |
| 20260503182824 | 67 | 302 | 5.0 | 12.0 | 0.00 | 0.00 | 0.00 | 46 | 1019.8 |
| 20260503182710 | 67 | 271 | 7.0 | 12.0 | 0.00 | 0.00 | 0.00 | 46 | 1019.8 |
| 20260503182618 | 67 | 293 | 7.0 | 12.0 | 0.00 | 0.00 | 0.00 | 46 | 1019.8 |
| 20260503182527 | 66 | 297 | 6.0 | 12.0 | 0.00 | 0.00 | 0.00 | 48 | 1019.8 |
| 20260503182435 | 66 | 221 | 7.0 | 12.0 | 0.00 | 0.00 | 0.00 | 47 | 1019.9 |
| 20260503182325 | 66 | 278 | 7.0 | 12.0 | 0.00 | 0.00 | 0.00 | 47 | 1019.9 |
| 20260503182213 | 66 | 286 | 3.0 | 10.0 | 0.00 | 0.00 | 0.00 | 48 | 1019.8 |
| 20260503182120 | 66 | 326 | 3.0 | 10.0 | 0.00 | 0.00 | 0.00 | 49 | 1019.8 |
| 20260503182051 | 66 | 287 | 4.0 | 10.0 | 0.00 | 0.00 | 0.00 | 46 | 1019.8 |
| 20260503181844 | 66 | 240 | 7.0 | 10.0 | 0.00 | 0.00 | 0.00 | 47 | 1019.8 |
| 20260503181713 | 66 | 211 | 6.0 | 13.0 | 0.00 | 0.00 | 0.00 | 48 | 1019.9 |
| 20260503181620 | 66 | 217 | 4.0 | 13.0 | 0.00 | 0.00 | 0.00 | 48 | 1019.9 |
| 20260503181528 | 66 | 243 | 2.0 | 13.0 | 0.00 | 0.00 | 0.00 | 47 | 1019.8 |
| 20260503181416 | 66 | 315 | 3.0 | 13.0 | 0.00 | 0.00 | 0.00 | 47 | 1019.9 |
| 20260503181324 | 66 | 321 | 3.0 | 13.0 | 0.00 | 0.00 | 0.00 | 48 | 1019.9 |
| 20260503181216 | 66 | 336 | 5.0 | 13.0 | 0.00 | 0.00 | 0.00 | 46 | 1019.8 |
| 20260503181124 | 66 | 312 | 6.0 | 13.0 | 0.00 | 0.00 | 0.00 | 47 | 1019.8 |
| 20260503181010 | 65 | 306 | 6.0 | 13.0 | 0.00 | 0.00 | 0.00 | 48 | 1019.9 |
| 20260503180919 | 65 | 279 | 3.0 | 13.0 | 0.00 | 0.00 | 0.00 | 46 | 1019.9 |
| 20260503180825 | 65 | 195 | 2.0 | 5.0 | 0.00 | 0.00 | 0.00 | 44 | 1019.9 |
| 20260503180734 | 65 | 234 | 2.0 | 5.0 | 0.00 | 0.00 | 0.00 | 45 | 1019.9 |
| 20260503180640 | 65 | 271 | 2.0 | 8.0 | 0.00 | 0.00 | 0.00 | 45 | 1019.9 |
| 20260503180554 | 65 | 101 | 1.0 | 8.0 | 0.00 | 0.00 | 0.00 | 45 | 1019.9 |
| 20260503180327 | 66 | 88 | 0.0 | 10.0 | 0.00 | 0.00 | 0.00 | 45 | 1020.0 |
| 20260503180214 | 66 | 252 | 1.0 | 10.0 | 0.00 | 0.00 | 0.00 | 46 | 1020.1 |
| 20260503180141 | 66 | 252 | 3.0 | 10.0 | 0.00 | 0.00 | 0.00 | 47 | 1020.1 |
| 20260503180011 | 66 | 256 | 3.0 | 14.0 | 0.00 | 0.00 | 0.00 | 46 | 1020.0 |
| 20260503175919 | 66 | 209 | 3.0 | 14.0 | 0.00 | 0.00 | 0.00 | 45 | 1020.0 |
| 20260503175826 | 66 | 284 | 3.0 | 14.0 | 0.00 | 0.00 | 0.00 | 46 | 1020.1 |
| 20260503175713 | 66 | 292 | 4.0 | 14.0 | 0.00 | 0.00 | 0.00 | 45 | 1020.0 |
| 20260503175621 | 66 | 165 | 6.0 | 14.0 | 0.00 | 0.00 | 0.00 | 46 | 1020.0 |
| 20260503175509 | 66 | 286 | 7.0 | 14.0 | 0.00 | 0.00 | 0.00 | 48 | 1020.0 |
| 20260503175422 | 66 | 295 | 6.0 | 14.0 | 0.00 | 0.00 | 0.00 | 47 | 1020.0 |
| 20260503175309 | 66 | 245 | 7.0 | 14.0 | 0.00 | 0.00 | 0.00 | 46 | 1020.0 |
| 20260503175218 | 66 | 258 | 6.0 | 14.0 | 0.00 | 0.00 | 0.00 | 46 | 1020.1 |
| 20260503175144 | 66 | 261 | 5.0 | 14.0 | 0.00 | 0.00 | 0.00 | 46 | 1020.1 |
| 20260503175114 | 66 | 200 | 5.0 | 13.0 | 0.00 | 0.00 | 0.00 | 44 | 1020.1 |
| 20260503174811 | 66 | 224 | 3.0 | 11.0 | 0.00 | 0.00 | 0.00 | 47 | 1020.2 |
| 20260503174717 | 65 | 219 | 2.0 | 11.0 | 0.00 | 0.00 | 0.00 | 49 | 1020.1 |
| 20260503174625 | 65 | 355 | 3.0 | 11.0 | 0.00 | 0.00 | 0.00 | 49 | 1020.1 |
| 20260503174513 | 65 | 355 | 5.0 | 11.0 | 0.00 | 0.00 | 0.00 | 48 | 1020.1 |
| 20260503174420 | 65 | 321 | 6.0 | 11.0 | 0.00 | 0.00 | 0.00 | 46 | 1020.1 |
| 20260503174312 | 65 | 279 | 5.0 | 11.0 | 0.00 | 0.00 | 0.00 | 47 | 1020.2 |
| 20260503174219 | 65 | 234 | 5.0 | 9.0 | 0.00 | 0.00 | 0.00 | 47 | 1020.2 |
| 20260503174127 | 65 | 183 | 5.0 | 9.0 | 0.00 | 0.00 | 0.00 | 46 | 1020.2 |
| 20260503174013 | 66 | 162 | 4.0 | 10.0 | 0.00 | 0.00 | 0.00 | 46 | 1020.2 |
| 20260503173922 | 66 | 269 | 5.0 | 10.0 | 0.00 | 0.00 | 0.00 | 47 | 1020.2 |
| 20260503173814 | 65 | 234 | 6.0 | 10.0 | 0.00 | 0.00 | 0.00 | 47 | 1020.3 |
| 20260503173722 | 65 | 267 | 5.0 | 10.0 | 0.00 | 0.00 | 0.00 | 48 | 1020.3 |
| 20260503173629 | 65 | 261 | 5.0 | 9.0 | 0.00 | 0.00 | 0.00 | 50 | 1020.3 |
| 20260503173559 | 65 | 274 | 5.0 | 8.0 | 0.00 | 0.00 | 0.00 | 47 | 1020.2 |
| 20260503173313 | 65 | 219 | 4.0 | 8.0 | 0.00 | 0.00 | 0.00 | 49 | 1020.3 |
| 20260503173226 | 65 | 213 | 3.0 | 8.0 | 0.00 | 0.00 | 0.00 | 49 | 1020.3 |
| 20260503173115 | 65 | 306 | 3.0 | 8.0 | 0.00 | 0.00 | 0.00 | 47 | 1020.3 |
| 20260503173023 | 65 | 315 | 2.0 | 8.0 | 0.00 | 0.00 | 0.00 | 47 | 1020.3 |
| 20260503172930 | 65 | 280 | 2.0 | 8.0 | 0.00 | 0.00 | 0.00 | 46 | 1020.4 |
| 20260503172816 | 65 | 195 | 2.0 | 8.0 | 0.00 | 0.00 | 0.00 | 46 | 1020.4 |
| 20260503172724 | 65 | 182 | 2.0 | 8.0 | 0.00 | 0.00 | 0.00 | 47 | 1020.4 |
| 20260503172615 | 65 | 211 | 4.0 | 8.0 | 0.00 | 0.00 | 0.00 | 49 | 1020.5 |
| 20260503172524 | 65 | 317 | 5.0 | 8.0 | 0.00 | 0.00 | 0.00 | 48 | 1020.5 |
| 20260503172412 | 65 | 323 | 3.0 | 9.0 | 0.00 | 0.00 | 0.00 | 50 | 1020.5 |
| 20260503172339 | 65 | 321 | 3.0 | 9.0 | 0.00 | 0.00 | 0.00 | 50 | 1020.5 |
| 20260503172226 | 65 | 280 | 3.0 | 9.0 | 0.00 | 0.00 | 0.00 | 49 | 1020.5 |
| 20260503172134 | 65 | 55 | 2.0 | 9.0 | 0.00 | 0.00 | 0.00 | 46 | 1020.5 |
| 20260503172108 | 65 | 16 | 3.0 | 9.0 | 0.00 | 0.00 | 0.00 | 48 | 1020.6 |
| 20260503171821 | 65 | 292 | 4.0 | 9.0 | 0.00 | 0.00 | 0.00 | 48 | 1020.6 |
| 20260503171709 | 65 | 290 | 5.0 | 9.0 | 0.00 | 0.00 | 0.00 | 49 | 1020.7 |
| 20260503171635 | 65 | 296 | 4.0 | 9.0 | 0.00 | 0.00 | 0.00 | 48 | 1020.7 |
| 20260503171522 | 65 | 242 | 4.0 | 9.0 | 0.00 | 0.00 | 0.00 | 49 | 1020.7 |
| 20260503171414 | 65 | 5 | 3.0 | 8.0 | 0.00 | 0.00 | 0.00 | 50 | 1020.6 |
| 20260503171322 | 65 | 14 | 2.0 | 8.0 | 0.00 | 0.00 | 0.00 | 47 | 1020.6 |
| 20260503171209 | 65 | 22 | 3.0 | 8.0 | 0.00 | 0.00 | 0.00 | 47 | 1020.6 |
| 20260503171117 | 65 | 277 | 5.0 | 8.0 | 0.00 | 0.00 | 0.00 | 48 | 1020.7 |
| 20260503171044 | 65 | 290 | 4.0 | 8.0 | 0.00 | 0.00 | 0.00 | 48 | 1020.7 |
| 20260503170914 | 65 | 271 | 3.0 | 9.0 | 0.00 | 0.00 | 0.00 | 47 | 1020.6 |
| 20260503170822 | 65 | 277 | 4.0 | 9.0 | 0.00 | 0.00 | 0.00 | 48 | 1020.6 |
| 20260503170730 | 65 | 279 | 4.0 | 9.0 | 0.00 | 0.00 | 0.00 | 49 | 1020.7 |
| 20260503170617 | 65 | 266 | 2.0 | 9.0 | 0.00 | 0.00 | 0.00 | 46 | 1020.7 |
| 20260503170548 | 65 | 285 | 2.0 | 9.0 | 0.00 | 0.00 | 0.00 | 46 | 1020.7 |
| 20260503170325 | 65 | 335 | 4.0 | 9.0 | 0.00 | 0.00 | 0.00 | 46 | 1020.7 |
| 20260503170234 | 65 | 273 | 5.0 | 9.0 | 0.00 | 0.00 | 0.00 | 48 | 1020.8 |
| 20260503170120 | 65 | 312 | 5.0 | 8.0 | 0.00 | 0.00 | 0.00 | 48 | 1020.8 |
| 20260503160217 | 61 | 121 | 3.0 | 8.0 | 0.00 | 0.00 | 0.00 | 54 | 1021.1 |
| 20260503160125 | 61 | 107 | 2.0 | 7.0 | 0.00 | 0.00 | 0.00 | 52 | 1021.1 |
| 20260503150928 | 60 | 230 | 1.0 | 4.0 | 0.00 | 0.00 | 0.00 | 58 | 1021.3 |
| 20260503150816 | 60 | 189 | 1.0 | 4.0 | 0.00 | 0.00 | 0.00 | 57 | 1021.3 |
| 20260503150723 | 60 | 28 | 1.0 | 5.0 | 0.00 | 0.00 | 0.00 | 57 | 1021.3 |
| 20260503150614 | 60 | 28 | 2.0 | 5.0 | 0.00 | 0.00 | 0.00 | 58 | 1021.3 |
| 20260503150546 | 60 | 5 | 2.0 | 5.0 | 0.00 | 0.00 | 0.00 | 55 | 1021.3 |
| 20260503150320 | 60 | 350 | 2.0 | 5.0 | 0.00 | 0.00 | 0.00 | 56 | 1021.3 |
| 20260503150226 | 60 | 350 | 2.0 | 5.0 | 0.00 | 0.00 | 0.00 | 55 | 1021.3 |
| 20260503150118 | 60 | 37 | 2.0 | 5.0 | 0.00 | 0.00 | 0.00 | 56 | 1021.3 |
| 20260503140223 | 57 | 170 | 1.0 | 5.0 | 0.00 | 0.00 | 0.00 | 71 | 1021.2 |
| 20260503140110 | 57 | 333 | 1.0 | 5.0 | 0.00 | 0.00 | 0.00 | 73 | 1021.2 |
| 20260503131319 | 53 | 318 | 1.0 | 4.0 | 0.00 | 0.00 | 0.00 | 79 | 1020.9 |
| 20260503131226 | 53 | 42 | 1.0 | 4.0 | 0.00 | 0.00 | 0.00 | 79 | 1021.0 |
| 20260503131114 | 53 | 91 | 1.0 | 4.0 | 0.00 | 0.00 | 0.00 | 80 | 1021.0 |
| 20260503131042 | 53 | 73 | 0.0 | 4.0 | 0.00 | 0.00 | 0.00 | 79 | 1021.0 |
| 20260503130908 | 53 | 78 | 1.0 | 4.0 | 0.00 | 0.00 | 0.00 | 80 | 1021.0 |
| 20260503130816 | 52 | 72 | 2.0 | 4.0 | 0.00 | 0.00 | 0.00 | 80 | 1021.0 |
| 20260503130728 | 52 | 355 | 3.0 | 4.0 | 0.00 | 0.00 | 0.00 | 81 | 1021.0 |
| 20260503130635 | 52 | 36 | 3.0 | 4.0 | 0.00 | 0.00 | 0.00 | 81 | 1021.0 |
| 20260503130606 | 52 | 24 | 3.0 | 4.0 | 0.00 | 0.00 | 0.00 | 81 | 1021.0 |
| 20260503130318 | 52 | 44 | 2.0 | 4.0 | 0.00 | 0.00 | 0.00 | 82 | 1021.0 |
| 20260503130225 | 52 | 23 | 1.0 | 4.0 | 0.00 | 0.00 | 0.00 | 82 | 1021.0 |
| 20260503130117 | 52 | 67 | 1.0 | 4.0 | 0.00 | 0.00 | 0.00 | 82 | 1021.0 |
| 20260503120210 | 44 | 338 | 1.0 | 2.0 | 0.00 | 0.00 | 0.00 | 93 | 1020.6 |
| 20260503120119 | 44 | 347 | 0.0 | 2.0 | 0.00 | 0.00 | 0.00 | 93 | 1020.6 |
| 20260503110815 | 43 | 337 | 2.0 | 3.0 | 0.00 | 0.00 | 0.00 | 91 | 1019.9 |
| 20260503110742 | 43 | 333 | 1.0 | 3.0 | 0.00 | 0.00 | 0.00 | 91 | 1019.9 |
| 20260503110629 | 43 | 333 | 0.0 | 2.0 | 0.00 | 0.00 | 0.00 | 91 | 1019.9 |
| 20260503110559 | 43 | 326 | 0.0 | 0.0 | 0.00 | 0.00 | 0.00 | 91 | 1020.0 |
| 20260503110311 | 43 | 338 | 0.0 | 0.0 | 0.00 | 0.00 | 0.00 | 91 | 1019.9 |
| 20260503110217 | 43 | 338 | 0.0 | 0.0 | 0.00 | 0.00 | 0.00 | 91 | 1019.9 |
| 20260503110109 | 43 | 338 | 0.0 | 0.0 | 0.00 | 0.00 | 0.00 | 91 | 1019.9 |
| 20260503100225 | 44 | 360 | 1.0 | 5.0 | 0.00 | 0.00 | 0.00 | 91 | 1019.5 |
| 20260503100112 | 44 | 360 | 0.0 | 5.0 | 0.00 | 0.00 | 0.00 | 91 | 1019.6 |
| 20260503090347 | 45 | 26 | 2.0 | 6.0 | 0.00 | 0.00 | 0.00 | 90 | 1019.2 |
| 20260503090211 | 45 | 13 | 3.0 | 6.0 | 0.00 | 0.00 | 0.00 | 90 | 1019.2 |
| 20260503090119 | 45 | 16 | 3.0 | 6.0 | 0.00 | 0.00 | 0.00 | 90 | 1019.2 |
| 20260503081527 | 45 | 355 | 2.0 | 5.0 | 0.00 | 0.00 | 0.00 | 88 | 1019.3 |
| 20260503081414 | 45 | 355 | 2.0 | 5.0 | 0.00 | 0.00 | 0.00 | 88 | 1019.3 |
| 20260503081341 | 45 | 348 | 3.0 | 5.0 | 0.00 | 0.00 | 0.00 | 88 | 1019.3 |
| 20260503081228 | 46 | 342 | 3.0 | 5.0 | 0.00 | 0.00 | 0.00 | 88 | 1019.4 |
| 20260503081116 | 45 | 344 | 3.0 | 5.0 | 0.00 | 0.00 | 0.00 | 88 | 1019.3 |
| 20260503081027 | 46 | 348 | 3.0 | 5.0 | 0.00 | 0.00 | 0.00 | 88 | 1019.3 |
| 20260503080934 | 46 | 340 | 2.0 | 5.0 | 0.00 | 0.00 | 0.00 | 88 | 1019.3 |
| 20260503080821 | 46 | 349 | 3.0 | 5.0 | 0.00 | 0.00 | 0.00 | 88 | 1019.3 |
| 20260503080728 | 46 | 355 | 3.0 | 5.0 | 0.00 | 0.00 | 0.00 | 88 | 1019.2 |
| 20260503080635 | 46 | 340 | 3.0 | 5.0 | 0.00 | 0.00 | 0.00 | 88 | 1019.2 |
| 20260503080610 | 46 | 344 | 3.0 | 5.0 | 0.00 | 0.00 | 0.00 | 88 | 1019.3 |
| 20260503080343 | 46 | 348 | 3.0 | 5.0 | 0.00 | 0.00 | 0.00 | 88 | 1019.2 |
| 20260503080209 | 46 | 336 | 3.0 | 5.0 | 0.00 | 0.00 | 0.00 | 88 | 1019.2 |
| 20260503080117 | 46 | 346 | 3.0 | 5.0 | 0.00 | 0.00 | 0.00 | 88 | 1019.1 |
| 20260503072914 | 46 | 343 | 2.0 | 4.0 | 0.00 | 0.00 | 0.00 | 87 | 1018.8 |
| 20260503072825 | 46 | 350 | 2.0 | 4.0 | 0.00 | 0.00 | 0.00 | 86 | 1018.8 |
| 20260503072733 | 46 | 355 | 1.0 | 3.0 | 0.00 | 0.00 | 0.00 | 86 | 1018.9 |
| 20260503072619 | 46 | 344 | 1.0 | 3.0 | 0.00 | 0.00 | 0.00 | 86 | 1018.9 |
| 20260503072528 | 46 | 347 | 1.0 | 3.0 | 0.00 | 0.00 | 0.00 | 86 | 1018.8 |
| 20260503072416 | 47 | 347 | 2.0 | 3.0 | 0.00 | 0.00 | 0.00 | 86 | 1018.8 |
| 20260503072324 | 47 | 355 | 2.0 | 3.0 | 0.00 | 0.00 | 0.00 | 86 | 1018.8 |
| 20260503072215 | 47 | 360 | 1.0 | 3.0 | 0.00 | 0.00 | 0.00 | 86 | 1018.7 |
| 20260503072141 | 47 | 5 | 1.0 | 2.0 | 0.00 | 0.00 | 0.00 | 86 | 1018.7 |
| 20260503072112 | 47 | 21 | 0.0 | 2.0 | 0.00 | 0.00 | 0.00 | 86 | 1018.7 |
| 20260503071824 | 47 | 5 | 0.0 | 2.0 | 0.00 | 0.00 | 0.00 | 86 | 1018.7 |
| 20260503071715 | 47 | 5 | 0.0 | 2.0 | 0.00 | 0.00 | 0.00 | 86 | 1018.6 |
| 20260503071643 | 47 | 5 | 0.0 | 2.0 | 0.00 | 0.00 | 0.00 | 86 | 1018.6 |
| 20260503071509 | 47 | 355 | 0.0 | 3.0 | 0.00 | 0.00 | 0.00 | 86 | 1018.7 |
| 20260503071415 | 47 | 355 | 0.0 | 3.0 | 0.00 | 0.00 | 0.00 | 86 | 1018.7 |
| 20260503071323 | 47 | 346 | 0.0 | 3.0 | 0.00 | 0.00 | 0.00 | 86 | 1018.7 |
| 20260503071211 | 47 | 346 | 1.0 | 3.0 | 0.00 | 0.00 | 0.00 | 86 | 1018.7 |
| 20260503071123 | 47 | 341 | 1.0 | 3.0 | 0.00 | 0.00 | 0.00 | 85 | 1018.7 |
| 20260503071030 | 47 | 341 | 1.0 | 3.0 | 0.00 | 0.00 | 0.00 | 85 | 1018.7 |
| 20260503070918 | 47 | 360 | 1.0 | 3.0 | 0.00 | 0.00 | 0.00 | 85 | 1018.7 |
| 20260503070825 | 47 | 360 | 1.0 | 3.0 | 0.00 | 0.00 | 0.00 | 85 | 1018.7 |
| 20260503070713 | 47 | 360 | 1.0 | 4.0 | 0.00 | 0.00 | 0.00 | 85 | 1018.7 |
| 20260503070554 | 47 | 350 | 1.0 | 6.0 | 0.00 | 0.00 | 0.00 | 85 | 1018.7 |
| 20260503070328 | 47 | 348 | 0.0 | 6.0 | 0.00 | 0.00 | 0.00 | 85 | 1018.7 |
| 20260503070215 | 47 | 342 | 1.0 | 6.0 | 0.00 | 0.00 | 0.00 | 85 | 1018.7 |
| 20260503070119 | 47 | 342 | 1.0 | 6.0 | 0.00 | 0.00 | 0.00 | 85 | 1018.7 |
| 20260503060328 | 49 | 329 | 4.0 | 6.0 | 0.00 | 0.00 | 0.00 | 82 | 1018.4 |
| 20260503060220 | 49 | 13 | 4.0 | 6.0 | 0.00 | 0.00 | 0.00 | 82 | 1018.5 |
| 20260503060146 | 49 | 355 | 3.0 | 6.0 | 0.00 | 0.00 | 0.00 | 82 | 1018.5 |
| 20260503055121 | 49 | 5 | 3.0 | 8.0 | 0.00 | 0.00 | 0.00 | 81 | 1018.5 |
| 20260503054813 | 49 | 341 | 5.0 | 8.0 | 0.00 | 0.00 | 0.00 | 81 | 1018.4 |
| 20260503054739 | 49 | 17 | 5.0 | 8.0 | 0.00 | 0.00 | 0.00 | 81 | 1018.4 |
| 20260503054627 | 49 | 18 | 5.0 | 8.0 | 0.00 | 0.00 | 0.00 | 81 | 1018.5 |
| 20260503054517 | 49 | 19 | 3.0 | 8.0 | 0.00 | 0.00 | 0.00 | 81 | 1018.4 |
| 20260503054424 | 49 | 19 | 3.0 | 5.0 | 0.00 | 0.00 | 0.00 | 81 | 1018.4 |
| 20260503054310 | 49 | 19 | 4.0 | 6.0 | 0.00 | 0.00 | 0.00 | 80 | 1018.4 |
| 20260503054218 | 49 | 5 | 3.0 | 6.0 | 0.00 | 0.00 | 0.00 | 80 | 1018.4 |
| 20260503054126 | 49 | 12 | 3.0 | 6.0 | 0.00 | 0.00 | 0.00 | 80 | 1018.4 |
| 20260503054012 | 49 | 15 | 2.0 | 6.0 | 0.00 | 0.00 | 0.00 | 80 | 1018.4 |
| 20260503053939 | 49 | 360 | 2.0 | 6.0 | 0.00 | 0.00 | 0.00 | 80 | 1018.4 |
| 20260503053809 | 49 | 360 | 2.0 | 6.0 | 0.00 | 0.00 | 0.00 | 80 | 1018.4 |
| 20260503053715 | 49 | 360 | 3.0 | 6.0 | 0.00 | 0.00 | 0.00 | 80 | 1018.4 |
| 20260503053643 | 49 | 346 | 3.0 | 6.0 | 0.00 | 0.00 | 0.00 | 80 | 1018.4 |
| 20260503053552 | 49 | 334 | 4.0 | 6.0 | 0.00 | 0.00 | 0.00 | 80 | 1018.4 |
| 20260503053324 | 49 | 360 | 4.0 | 6.0 | 0.00 | 0.00 | 0.00 | 80 | 1018.3 |
| 20260503053216 | 49 | 5 | 4.0 | 6.0 | 0.00 | 0.00 | 0.00 | 80 | 1018.3 |
| 20260503053144 | 49 | 5 | 3.0 | 6.0 | 0.00 | 0.00 | 0.00 | 80 | 1018.3 |
| 20260503053010 | 49 | 5 | 3.0 | 6.0 | 0.00 | 0.00 | 0.00 | 80 | 1018.3 |
| 20260503052917 | 49 | 5 | 4.0 | 6.0 | 0.00 | 0.00 | 0.00 | 80 | 1018.4 |
| 20260503052825 | 49 | 17 | 4.0 | 6.0 | 0.00 | 0.00 | 0.00 | 80 | 1018.4 |
| 20260503052717 | 49 | 5 | 4.0 | 6.0 | 0.00 | 0.00 | 0.00 | 80 | 1018.4 |
| 20260503052645 | 49 | 5 | 4.0 | 6.0 | 0.00 | 0.00 | 0.00 | 80 | 1018.4 |
| 20260503052512 | 49 | 5 | 4.0 | 6.0 | 0.00 | 0.00 | 0.00 | 80 | 1018.4 |
| 20260503052420 | 49 | 355 | 3.0 | 6.0 | 0.00 | 0.00 | 0.00 | 80 | 1018.4 |
| 20260503052328 | 50 | 355 | 3.0 | 6.0 | 0.00 | 0.00 | 0.00 | 80 | 1018.4 |
| 20260503052215 | 50 | 5 | 3.0 | 6.0 | 0.00 | 0.00 | 0.00 | 79 | 1018.4 |
| 20260503052126 | 50 | 12 | 3.0 | 7.0 | 0.00 | 0.00 | 0.00 | 79 | 1018.4 |
| 20260503052058 | 50 | 5 | 3.0 | 7.0 | 0.00 | 0.00 | 0.00 | 79 | 1018.4 |
| 20260503051831 | 50 | 5 | 2.0 | 5.0 | 0.00 | 0.00 | 0.00 | 79 | 1018.3 |
| 20260503051716 | 50 | 19 | 2.0 | 5.0 | 0.00 | 0.00 | 0.00 | 79 | 1018.3 |
| 20260503051624 | 50 | 5 | 2.0 | 5.0 | 0.00 | 0.00 | 0.00 | 79 | 1018.3 |
| 20260503051535 | 50 | 5 | 2.0 | 5.0 | 0.00 | 0.00 | 0.00 | 79 | 1018.3 |
| 20260503051421 | 50 | 9 | 3.0 | 5.0 | 0.00 | 0.00 | 0.00 | 79 | 1018.3 |
| 20260503051309 | 50 | 355 | 3.0 | 5.0 | 0.00 | 0.00 | 0.00 | 78 | 1018.3 |
| 20260503051216 | 50 | 346 | 3.0 | 5.0 | 0.00 | 0.00 | 0.00 | 78 | 1018.3 |
| 20260503051123 | 50 | 5 | 2.0 | 5.0 | 0.00 | 0.00 | 0.00 | 78 | 1018.3 |
| 20260503051010 | 50 | 339 | 2.0 | 5.0 | 0.00 | 0.00 | 0.00 | 78 | 1018.2 |
| 20260503050921 | 50 | 339 | 2.0 | 5.0 | 0.00 | 0.00 | 0.00 | 78 | 1018.2 |
| 20260503050809 | 50 | 5 | 3.0 | 5.0 | 0.00 | 0.00 | 0.00 | 78 | 1018.2 |
| 20260503050718 | 50 | 34 | 3.0 | 5.0 | 0.00 | 0.00 | 0.00 | 78 | 1018.3 |
| 20260503050625 | 50 | 5 | 3.0 | 4.0 | 0.00 | 0.00 | 0.00 | 78 | 1018.3 |
| 20260503050559 | 50 | 20 | 3.0 | 4.0 | 0.00 | 0.00 | 0.00 | 77 | 1018.2 |
| 20260503050313 | 50 | 17 | 3.0 | 4.0 | 0.00 | 0.00 | 0.00 | 77 | 1018.2 |
| 20260503050242 | 50 | 355 | 2.0 | 4.0 | 0.00 | 0.00 | 0.00 | 77 | 1018.2 |
| 20260503050126 | 50 | 325 | 2.0 | 5.0 | 0.00 | 0.00 | 0.00 | 77 | 1018.2 |
| 20260503050033 | 50 | 360 | 3.0 | 5.0 | 0.00 | 0.00 | 0.00 | 77 | 1018.2 |
| 20260503045941 | 50 | 26 | 3.0 | 5.0 | 0.00 | 0.00 | 0.00 | 77 | 1018.2 |
| 20260503045826 | 50 | 5 | 3.0 | 5.0 | 0.00 | 0.00 | 0.00 | 77 | 1018.2 |
| 20260503045719 | 50 | 355 | 3.0 | 5.0 | 0.00 | 0.00 | 0.00 | 77 | 1018.2 |
| 20260503045627 | 50 | 30 | 3.0 | 5.0 | 0.00 | 0.00 | 0.00 | 77 | 1018.2 |
| 20260503045514 | 50 | 10 | 2.0 | 5.0 | 0.00 | 0.00 | 0.00 | 77 | 1018.2 |
| 20260503045421 | 50 | 355 | 2.0 | 5.0 | 0.00 | 0.00 | 0.00 | 77 | 1018.2 |
| 20260503045327 | 50 | 349 | 3.0 | 5.0 | 0.00 | 0.00 | 0.00 | 76 | 1018.2 |
| 20260503045220 | 50 | 336 | 3.0 | 5.0 | 0.00 | 0.00 | 0.00 | 76 | 1018.2 |
| 20260503045147 | 50 | 337 | 3.0 | 5.0 | 0.00 | 0.00 | 0.00 | 76 | 1018.2 |
| 20260503045057 | 50 | 343 | 2.0 | 4.0 | 0.00 | 0.00 | 0.00 | 76 | 1018.2 |
| 20260503044829 | 50 | 336 | 2.0 | 4.0 | 0.00 | 0.00 | 0.00 | 76 | 1018.1 |
| 20260503044713 | 51 | 355 | 3.0 | 4.0 | 0.00 | 0.00 | 0.00 | 76 | 1018.2 |
| 20260503044624 | 51 | 348 | 3.0 | 4.0 | 0.00 | 0.00 | 0.00 | 76 | 1018.2 |
| 20260503044511 | 51 | 355 | 3.0 | 6.0 | 0.00 | 0.00 | 0.00 | 76 | 1018.2 |
| 20260503044419 | 51 | 5 | 3.0 | 6.0 | 0.00 | 0.00 | 0.00 | 75 | 1018.2 |
| 20260503044345 | 51 | 344 | 3.0 | 6.0 | 0.00 | 0.00 | 0.00 | 75 | 1018.2 |
| 20260503044232 | 51 | 18 | 2.0 | 6.0 | 0.00 | 0.00 | 0.00 | 75 | 1018.2 |
| 20260503044120 | 51 | 347 | 2.0 | 6.0 | 0.00 | 0.00 | 0.00 | 75 | 1018.2 |
| 20260503044011 | 51 | 355 | 2.0 | 6.0 | 0.00 | 0.00 | 0.00 | 75 | 1018.1 |
| 20260503043939 | 51 | 355 | 3.0 | 6.0 | 0.00 | 0.00 | 0.00 | 75 | 1018.2 |
| 20260503043825 | 51 | 321 | 3.0 | 6.0 | 0.00 | 0.00 | 0.00 | 75 | 1018.2 |
| 20260503043713 | 51 | 346 | 3.0 | 6.0 | 0.00 | 0.00 | 0.00 | 75 | 1018.2 |
| 20260503043620 | 51 | 338 | 3.0 | 4.0 | 0.00 | 0.00 | 0.00 | 74 | 1018.2 |
| 20260503043554 | 51 | 348 | 3.0 | 4.0 | 0.00 | 0.00 | 0.00 | 74 | 1018.2 |
| 20260503043327 | 51 | 344 | 2.0 | 3.0 | 0.00 | 0.00 | 0.00 | 74 | 1018.1 |
| 20260503043214 | 51 | 5 | 2.0 | 3.0 | 0.00 | 0.00 | 0.00 | 74 | 1018.1 |
| 20260503043123 | 51 | 355 | 2.0 | 3.0 | 0.00 | 0.00 | 0.00 | 74 | 1018.1 |
| 20260503043030 | 51 | 349 | 2.0 | 4.0 | 0.00 | 0.00 | 0.00 | 74 | 1018.1 |
| 20260503042937 | 51 | 349 | 2.0 | 4.0 | 0.00 | 0.00 | 0.00 | 74 | 1018.1 |
| 20260503042843 | 51 | 339 | 2.0 | 4.0 | 0.00 | 0.00 | 0.00 | 74 | 1018.1 |
| 20260503042712 | 51 | 321 | 2.0 | 4.0 | 0.00 | 0.00 | 0.00 | 74 | 1018.1 |
| 20260503042621 | 51 | 355 | 2.0 | 4.0 | 0.00 | 0.00 | 0.00 | 74 | 1018.1 |
| 20260503042508 | 51 | 355 | 2.0 | 6.0 | 0.00 | 0.00 | 0.00 | 74 | 1018.1 |
| 20260503042415 | 51 | 360 | 2.0 | 6.0 | 0.00 | 0.00 | 0.00 | 74 | 1018.0 |
| 20260503042324 | 51 | 336 | 3.0 | 6.0 | 0.00 | 0.00 | 0.00 | 74 | 1018.0 |
| 20260503042231 | 51 | 355 | 3.0 | 6.0 | 0.00 | 0.00 | 0.00 | 74 | 1018.1 |
| 20260503042121 | 51 | 360 | 2.0 | 6.0 | 0.00 | 0.00 | 0.00 | 74 | 1018.1 |
| 20260503042051 | 51 | 355 | 2.0 | 6.0 | 0.00 | 0.00 | 0.00 | 73 | 1018.0 |
| 20260503041824 | 52 | 360 | 3.0 | 6.0 | 0.00 | 0.00 | 0.00 | 73 | 1018.0 |
| 20260503041711 | 52 | 11 | 3.0 | 6.0 | 0.00 | 0.00 | 0.00 | 73 | 1018.1 |
| 20260503041622 | 52 | 339 | 3.0 | 6.0 | 0.00 | 0.00 | 0.00 | 73 | 1018.1 |
| 20260503041509 | 52 | 351 | 3.0 | 4.0 | 0.00 | 0.00 | 0.00 | 73 | 1018.0 |
| 20260503041416 | 52 | 360 | 3.0 | 5.0 | 0.00 | 0.00 | 0.00 | 73 | 1018.1 |
| 20260503041323 | 52 | 15 | 3.0 | 5.0 | 0.00 | 0.00 | 0.00 | 73 | 1018.1 |
| 20260503041211 | 52 | 11 | 3.0 | 5.0 | 0.00 | 0.00 | 0.00 | 73 | 1018.1 |
| 20260503041118 | 52 | 5 | 3.0 | 5.0 | 0.00 | 0.00 | 0.00 | 73 | 1018.0 |
| 20260503041010 | 52 | 348 | 3.0 | 5.0 | 0.00 | 0.00 | 0.00 | 73 | 1018.0 |
| 20260503040919 | 52 | 349 | 3.0 | 5.0 | 0.00 | 0.00 | 0.00 | 73 | 1018.0 |
| 20260503040826 | 52 | 344 | 3.0 | 5.0 | 0.00 | 0.00 | 0.00 | 72 | 1018.0 |
| 20260503040713 | 52 | 355 | 3.0 | 5.0 | 0.00 | 0.00 | 0.00 | 72 | 1018.0 |
| 20260503040556 | 52 | 360 | 3.0 | 5.0 | 0.00 | 0.00 | 0.00 | 72 | 1018.0 |
| 20260503040309 | 52 | 360 | 3.0 | 5.0 | 0.00 | 0.00 | 0.00 | 72 | 1018.0 |
| 20260503040216 | 52 | 347 | 2.0 | 5.0 | 0.00 | 0.00 | 0.00 | 72 | 1017.9 |
| 20260503040122 | 52 | 338 | 2.0 | 5.0 | 0.00 | 0.00 | 0.00 | 72 | 1017.9 |
| 20260503040014 | 52 | 351 | 2.0 | 5.0 | 0.00 | 0.00 | 0.00 | 72 | 1018.0 |
| 20260503035921 | 52 | 340 | 2.0 | 5.0 | 0.00 | 0.00 | 0.00 | 72 | 1018.0 |
| 20260503035809 | 52 | 343 | 3.0 | 5.0 | 0.00 | 0.00 | 0.00 | 71 | 1017.9 |
| 20260503035716 | 52 | 360 | 3.0 | 5.0 | 0.00 | 0.00 | 0.00 | 71 | 1017.9 |
| 20260503035624 | 52 | 9 | 3.0 | 4.0 | 0.00 | 0.00 | 0.00 | 71 | 1017.9 |
| 20260503035510 | 52 | 11 | 2.0 | 4.0 | 0.00 | 0.00 | 0.00 | 71 | 1017.9 |
| 20260503035421 | 52 | 347 | 2.0 | 4.0 | 0.00 | 0.00 | 0.00 | 71 | 1017.9 |
| 20260503035328 | 52 | 5 | 2.0 | 4.0 | 0.00 | 0.00 | 0.00 | 71 | 1018.0 |
| 20260503035215 | 53 | 344 | 2.0 | 4.0 | 0.00 | 0.00 | 0.00 | 71 | 1017.9 |
| 20260503035144 | 53 | 351 | 2.0 | 4.0 | 0.00 | 0.00 | 0.00 | 71 | 1017.9 |
| 20260503035053 | 53 | 351 | 2.0 | 4.0 | 0.00 | 0.00 | 0.00 | 71 | 1017.9 |
| 20260503034810 | 53 | 355 | 3.0 | 5.0 | 0.00 | 0.00 | 0.00 | 71 | 1017.9 |
| 20260503034718 | 53 | 346 | 3.0 | 6.0 | 0.00 | 0.00 | 0.00 | 71 | 1017.9 |
| 20260503034625 | 53 | 326 | 3.0 | 6.0 | 0.00 | 0.00 | 0.00 | 70 | 1017.9 |
| 20260503034513 | 53 | 333 | 3.0 | 6.0 | 0.00 | 0.00 | 0.00 | 70 | 1017.9 |
| 20260503034419 | 53 | 346 | 3.0 | 6.0 | 0.00 | 0.00 | 0.00 | 70 | 1018.0 |
| 20260503034311 | 53 | 355 | 3.0 | 6.0 | 0.00 | 0.00 | 0.00 | 70 | 1017.9 |
| 20260503034219 | 53 | 346 | 3.0 | 6.0 | 0.00 | 0.00 | 0.00 | 70 | 1018.0 |
| 20260503034125 | 53 | 355 | 3.0 | 6.0 | 0.00 | 0.00 | 0.00 | 70 | 1018.0 |
| 20260503034032 | 53 | 355 | 4.0 | 6.0 | 0.00 | 0.00 | 0.00 | 70 | 1017.9 |
| 20260503033918 | 53 | 348 | 4.0 | 6.0 | 0.00 | 0.00 | 0.00 | 70 | 1017.9 |
| 20260503033826 | 53 | 346 | 3.0 | 6.0 | 0.00 | 0.00 | 0.00 | 70 | 1017.9 |
| 20260503033718 | 53 | 5 | 3.0 | 6.0 | 0.00 | 0.00 | 0.00 | 70 | 1017.9 |
| 20260503033626 | 53 | 344 | 3.0 | 5.0 | 0.00 | 0.00 | 0.00 | 69 | 1017.9 |
| 20260503033556 | 53 | 349 | 3.0 | 5.0 | 0.00 | 0.00 | 0.00 | 69 | 1017.8 |
| 20260503033310 | 53 | 5 | 3.0 | 5.0 | 0.00 | 0.00 | 0.00 | 69 | 1017.9 |
| 20260503033237 | 53 | 338 | 3.0 | 5.0 | 0.00 | 0.00 | 0.00 | 69 | 1017.8 |
| 20260503033109 | 53 | 9 | 3.0 | 5.0 | 0.00 | 0.00 | 0.00 | 69 | 1017.8 |
| 20260503033017 | 53 | 330 | 3.0 | 5.0 | 0.00 | 0.00 | 0.00 | 69 | 1017.8 |
| 20260503032926 | 54 | 342 | 3.0 | 5.0 | 0.00 | 0.00 | 0.00 | 69 | 1017.8 |
| 20260503032812 | 54 | 5 | 3.0 | 5.0 | 0.00 | 0.00 | 0.00 | 69 | 1017.9 |
| 20260503032720 | 54 | 343 | 3.0 | 5.0 | 0.00 | 0.00 | 0.00 | 69 | 1017.9 |
| 20260503032611 | 54 | 5 | 3.0 | 5.0 | 0.00 | 0.00 | 0.00 | 68 | 1017.8 |
| 20260503032519 | 54 | 5 | 2.0 | 5.0 | 0.00 | 0.00 | 0.00 | 69 | 1017.8 |
| 20260503032427 | 54 | 340 | 3.0 | 6.0 | 0.00 | 0.00 | 0.00 | 69 | 1017.8 |
| 20260503032314 | 54 | 339 | 4.0 | 9.0 | 0.00 | 0.00 | 0.00 | 68 | 1017.8 |
| 20260503032222 | 54 | 360 | 4.0 | 9.0 | 0.00 | 0.00 | 0.00 | 68 | 1017.8 |
| 20260503032128 | 54 | 355 | 4.0 | 9.0 | 0.00 | 0.00 | 0.00 | 68 | 1017.9 |
| 20260503032103 | 54 | 327 | 4.0 | 9.0 | 0.00 | 0.00 | 0.00 | 68 | 1017.8 |